GFSGBSN_prec_precacc24_087.txt.gz
Total_Precipitation_Accumulation
0.02 0.02 0.02 0.02 0.02 0.02 0.01 0.01 0.02 0.02 0.00 0.00 0.00 0.00 0.00 0.00 0.00 0.00 0.00 0.00 0.00 0.00 0.00 0.00 0.00 0.00 0.00 0.00 0.00 0.00 0.00 0.00 0.00 0.00 0.00 0.00 0.00 0.00 0.00 0.00 0.00 0.00 0.00 0.00 0.00 0.00 0.00
0.03 0.03 0.02 0.03 0.02 0.01 0.02 0.02 0.01 0.01 0.01 0.01 0.00 0.00 0.00 0.00 0.00 0.00 0.00 0.00 0.00 0.00 0.00 0.00 0.00 0.01 0.00 0.00 0.00 0.00 0.00 0.00 0.00 0.00 0.00 0.00 0.00 0.00 0.00 0.00 0.00 0.00 0.00 0.00 0.00 0.00 0.00
0.03 0.03 0.03 0.03 0.02 0.02 0.01 0.01 0.01 0.01 0.01 0.01 0.01 0.01 0.00 0.00 0.00 0.00 0.00 0.00 0.00 0.00 0.00 0.00 0.00 0.02 0.01 0.00 0.00 0.00 0.00 0.00 0.00 0.00 0.00 0.00 0.00 0.00 0.00 0.00 0.00 0.00 0.00 0.00 0.00 0.00 0.00
0.04 0.04 0.04 0.05 0.04 0.03 0.02 0.01 0.02 0.01 0.01 0.01 0.01 0.01 0.00 0.00 0.00 0.00 0.00 0.00 0.00 0.00 0.00 0.00 0.00 0.01 0.00 0.00 0.00 0.00 0.00 0.00 0.00 0.00 0.00 0.00 0.00 0.00 0.00 0.00 0.00 0.00 0.00 0.00 0.00 0.00 0.00
0.05 0.05 0.05 0.04 0.05 0.04 0.03 0.02 0.01 0.00 0.00 0.00 0.01 0.01 0.01 0.00 0.00 0.00 0.00 0.00 0.00 0.00 0.00 0.00 0.00 0.00 0.00 0.00 0.00 0.00 0.00 0.00 0.00 0.00 0.00 0.00 0.00 0.00 0.00 0.00 0.00 0.00 0.00 0.00 0.00 0.00 0.00
0.05 0.05 0.04 0.04 0.05 0.05 0.05 0.03 0.02 0.01 0.01 0.01 0.00 0.01 0.01 0.01 0.00 0.00 0.00 0.00 0.00 0.00 0.00 0.00 0.01 0.00 0.00 0.00 0.00 0.00 0.00 0.00 0.00 0.00 0.00 0.00 0.00 0.00 0.00 0.00 0.00 0.00 0.00 0.00 0.00 0.00 0.00
0.03 0.02 0.02 0.03 0.04 0.04 0.04 0.04 0.04 0.03 0.02 0.02 0.01 0.01 0.01 0.01 0.00 0.00 0.00 0.00 0.00 0.00 0.00 0.00 0.00 0.00 0.00 0.00 0.00 0.00 0.00 0.00 0.00 0.00 0.00 0.00 0.00 0.00 0.00 0.00 0.00 0.00 0.00 0.00 0.00 0.00 0.00
0.05 0.06 0.05 0.05 0.05 0.05 0.05 0.05 0.04 0.03 0.03 0.02 0.02 0.02 0.01 0.01 0.01 0.00 0.00 0.00 0.00 0.00 0.00 0.00 0.00 0.00 0.00 0.00 0.00 0.00 0.00 0.00 0.00 0.00 0.00 0.00 0.00 0.00 0.00 0.00 0.00 0.00 0.00 0.00 0.00 0.00 0.00
0.07 0.05 0.04 0.04 0.05 0.06 0.05 0.06 0.05 0.04 0.03 0.02 0.02 0.01 0.02 0.02 0.01 0.00 0.00 0.00 0.00 0.00 0.00 0.00 0.00 0.00 0.00 0.00 0.00 0.00 0.00 0.00 0.00 0.00 0.00 0.00 0.00 0.00 0.00 0.00 0.00 0.00 0.00 0.00 0.00 0.00 0.00
0.05 0.07 0.07 0.06 0.07 0.07 0.07 0.06 0.04 0.03 0.03 0.02 0.02 0.02 0.03 0.04 0.00 0.00 0.00 0.00 0.00 0.00 0.00 0.00 0.00 0.00 0.00 0.00 0.00 0.00 0.00 0.00 0.00 0.00 0.00 0.00 0.00 0.00 0.00 0.00 0.00 0.00 0.00 0.00 0.00 0.00 0.00
0.06 0.06 0.05 0.05 0.06 0.07 0.06 0.05 0.04 0.04 0.05 0.05 0.04 0.03 0.06 0.09 0.01 0.00 0.00 0.00 0.00 0.02 0.00 0.00 0.00 0.00 0.00 0.00 0.00 0.00 0.00 0.00 0.00 0.00 0.00 0.00 0.00 0.00 0.00 0.00 0.00 0.00 0.00 0.00 0.00 0.00 0.00
0.06 0.06 0.07 0.06 0.05 0.05 0.05 0.05 0.04 0.04 0.05 0.05 0.06 0.07 0.15 0.14 0.04 0.00 0.00 0.03 0.09 0.04 0.00 0.00 0.00 0.00 0.00 0.00 0.00 0.00 0.00 0.00 0.00 0.00 0.00 0.00 0.00 0.00 0.00 0.00 0.00 0.00 0.00 0.00 0.00 0.00 0.00
0.08 0.07 0.07 0.06 0.06 0.06 0.06 0.07 0.05 0.05 0.05 0.06 0.07 0.09 0.18 0.10 0.05 0.04 0.07 0.15 0.20 0.04 0.00 0.00 0.00 0.00 0.00 0.00 0.00 0.00 0.00 0.00 0.00 0.00 0.00 0.00 0.00 0.00 0.00 0.00 0.00 0.00 0.00 0.00 0.02 0.01 0.00
0.08 0.06 0.06 0.07 0.07 0.07 0.07 0.07 0.07 0.07 0.07 0.09 0.10 0.14 0.14 0.10 0.05 0.07 0.16 0.22 0.17 0.01 0.00 0.00 0.00 0.00 0.00 0.00 0.00 0.00 0.00 0.00 0.00 0.00 0.00 0.00 0.00 0.00 0.00 0.00 0.00 0.00 0.00 0.00 0.06 0.04 0.04
0.06 0.06 0.06 0.04 0.05 0.06 0.07 0.07 0.07 0.08 0.08 0.12 0.28 0.21 0.18 0.06 0.06 0.21 0.32 0.30 0.04 0.00 0.00 0.00 0.00 0.00 0.00 0.00 0.00 0.00 0.00 0.00 0.00 0.00 0.00 0.00 0.00 0.00 0.00 0.00 0.00 0.00 0.00 0.00 0.03 0.04 0.06
0.08 0.07 0.07 0.07 0.06 0.06 0.06 0.08 0.09 0.10 0.12 0.23 0.39 0.39 0.17 0.08 0.29 0.53 0.59 0.25 0.00 0.00 0.00 0.00 0.00 0.00 0.00 0.00 0.00 0.00 0.00 0.00 0.00 0.00 0.00 0.00 0.00 0.00 0.00 0.00 0.00 0.00 0.00 0.00 0.00 0.04 0.04
0.08 0.09 0.08 0.09 0.09 0.09 0.09 0.09 0.10 0.10 0.14 0.39 0.96 0.93 0.23 0.11 0.72 1.10 0.77 0.17 0.01 0.00 0.00 0.00 0.00 0.00 0.00 0.01 0.01 0.00 0.00 0.00 0.00 0.00 0.00 0.00 0.00 0.00 0.00 0.00 0.00 0.00 0.00 0.00 0.00 0.00 0.01
0.10 0.10 0.10 0.09 0.08 0.09 0.10 0.11 0.13 0.16 0.31 0.93 1.57 1.21 0.27 0.27 1.02 0.92 0.32 0.09 0.03 0.01 0.00 0.00 0.00 0.00 0.00 0.00 0.01 0.01 0.00 0.00 0.00 0.00 0.00 0.00 0.00 0.00 0.00 0.00 0.00 0.00 0.00 0.00 0.01 0.00 0.00
0.12 0.12 0.11 0.10 0.10 0.11 0.15 0.18 0.20 0.25 0.55 1.25 1.81 0.97 0.58 0.47 0.61 0.20 0.14 0.13 0.06 0.02 0.00 0.00 0.00 0.00 0.00 0.00 0.00 0.01 0.00 0.00 0.01 0.00 0.01 0.01 0.03 0.01 0.01 0.00 0.00 0.00 0.00 0.00 0.00 0.00 0.00
0.15 0.16 0.16 0.17 0.17 0.17 0.18 0.24 0.33 0.41 0.61 1.43 2.21 1.18 1.10 1.09 0.30 0.08 0.10 0.15 0.15 0.04 0.01 0.00 0.01 0.01 0.00 0.00 0.00 0.01 0.01 0.01 0.02 0.01 0.02 0.03 0.03 0.04 0.03 0.01 0.00 0.00 0.00 0.00 0.00 0.00 0.00
0.17 0.17 0.17 0.20 0.25 0.29 0.31 0.31 0.43 0.56 0.88 2.32 3.15 1.04 0.33 0.74 0.36 0.06 0.08 0.11 0.10 0.11 0.03 0.01 0.02 0.01 0.01 0.01 0.01 0.02 0.06 0.03 0.02 0.03 0.07 0.10 0.05 0.00 0.01 0.00 0.00 0.00 0.00 0.00 0.00 0.00 0.00
0.20 0.19 0.18 0.21 0.27 0.35 0.43 0.46 0.52 0.78 1.22 3.11 3.31 0.71 0.16 0.08 0.09 0.16 0.11 0.09 0.05 0.06 0.07 0.03 0.01 0.01 0.01 0.02 0.02 0.05 0.04 0.09 0.05 0.06 0.08 0.20 0.19 0.04 0.01 0.00 0.00 0.00 0.00 0.00 0.00 0.00 0.00
0.15 0.14 0.12 0.11 0.12 0.16 0.26 0.41 0.60 1.02 2.02 3.88 2.66 0.41 0.23 0.20 0.16 0.26 0.17 0.05 0.03 0.04 0.04 0.01 0.00 0.03 0.03 0.03 0.06 0.07 0.05 0.06 0.09 0.09 0.16 0.22 0.36 0.32 0.15 0.07 0.05 0.07 0.00 0.00 0.00 0.00 0.00
0.09 0.07 0.08 0.09 0.08 0.08 0.07 0.08 0.24 0.79 2.27 3.19 1.94 0.30 0.45 0.45 0.16 0.12 0.04 0.04 0.05 0.03 0.03 0.02 0.00 0.03 0.03 0.03 0.07 0.08 0.06 0.05 0.05 0.04 0.07 0.20 0.30 0.32 0.20 0.20 0.31 0.09 0.01 0.01 0.00 0.00 0.00
0.09 0.09 0.10 0.11 0.12 0.12 0.10 0.07 0.08 0.21 1.42 2.86 2.08 0.44 0.31 0.35 0.12 0.09 0.07 0.06 0.06 0.06 0.05 0.05 0.02 0.02 0.08 0.12 0.13 0.12 0.07 0.06 0.02 0.03 0.05 0.05 0.15 0.42 0.39 0.36 0.20 0.12 0.11 0.08 0.08 0.02 0.00
0.11 0.15 0.17 0.15 0.14 0.13 0.13 0.11 0.10 0.10 0.55 1.98 2.66 1.12 0.72 0.36 0.16 0.05 0.07 0.07 0.07 0.08 0.08 0.04 0.06 0.06 0.06 0.20 0.32 0.22 0.08 0.05 0.04 0.05 0.03 0.05 0.07 0.28 0.26 0.20 0.07 0.08 0.03 0.05 0.02 0.12 0.05
0.08 0.10 0.13 0.15 0.19 0.16 0.18 0.12 0.12 0.13 0.33 1.01 1.67 1.24 1.60 0.93 0.13 0.04 0.07 0.08 0.06 0.07 0.12 0.07 0.15 0.16 0.18 0.31 0.26 0.15 0.07 0.03 0.03 0.09 0.15 0.07 0.11 0.19 0.13 0.18 0.05 0.02 0.01 0.04 0.26 0.28 0.18
0.15 0.16 0.15 0.14 0.16 0.22 0.29 0.17 0.14 0.15 0.30 0.66 0.87 0.65 1.55 1.05 0.26 0.07 0.02 0.01 0.04 0.08 0.13 0.10 0.30 0.35 0.46 0.34 0.18 0.10 0.02 0.01 0.00 0.01 0.15 0.19 0.15 0.13 0.16 0.17 0.07 0.03 0.08 0.15 0.29 0.26 0.41
0.13 0.21 0.20 0.18 0.15 0.16 0.28 0.22 0.23 0.23 0.35 0.61 0.60 0.50 0.82 0.88 0.43 0.26 0.10 0.01 0.00 0.00 0.05 0.12 0.10 0.09 0.10 0.14 0.11 0.07 0.05 0.02 0.00 0.00 0.00 0.06 0.12 0.22 0.13 0.09 0.08 0.02 0.04 0.06 0.04 0.04 0.03

GFSGBSN_prec_precacc24_093.txt.gz
Total_Precipitation_Accumulation
0.03 0.02 0.03 0.02 0.02 0.02 0.01 0.01 0.02 0.01 0.00 0.00 0.00 0.00 0.00 0.00 0.00 0.00 0.00 0.00 0.00 0.00 0.00 0.00 0.00 0.00 0.00 0.00 0.00 0.00 0.00 0.00 0.00 0.00 0.00 0.00 0.00 0.00 0.00 0.00 0.00 0.00 0.00 0.00 0.00 0.00 0.00
0.03 0.03 0.03 0.03 0.02 0.01 0.01 0.01 0.01 0.01 0.00 0.00 0.00 0.00 0.00 0.00 0.00 0.00 0.00 0.00 0.00 0.00 0.00 0.00 0.00 0.01 0.00 0.00 0.00 0.00 0.00 0.00 0.00 0.00 0.00 0.00 0.00 0.00 0.00 0.00 0.00 0.00 0.00 0.00 0.00 0.00 0.00
0.04 0.04 0.03 0.03 0.03 0.02 0.02 0.01 0.01 0.01 0.01 0.01 0.01 0.01 0.00 0.00 0.00 0.00 0.00 0.00 0.00 0.00 0.00 0.00 0.00 0.02 0.01 0.00 0.00 0.00 0.00 0.00 0.00 0.00 0.00 0.00 0.00 0.00 0.00 0.00 0.00 0.00 0.00 0.00 0.00 0.00 0.00
0.04 0.04 0.04 0.06 0.05 0.04 0.03 0.02 0.02 0.01 0.01 0.01 0.01 0.00 0.00 0.00 0.00 0.00 0.00 0.00 0.00 0.00 0.00 0.00 0.00 0.01 0.00 0.00 0.00 0.00 0.00 0.00 0.00 0.00 0.00 0.00 0.00 0.00 0.00 0.00 0.00 0.00 0.00 0.00 0.00 0.00 0.00
0.06 0.06 0.05 0.05 0.06 0.05 0.04 0.03 0.02 0.01 0.01 0.01 0.01 0.01 0.00 0.00 0.00 0.00 0.00 0.00 0.00 0.00 0.00 0.00 0.00 0.00 0.00 0.00 0.00 0.00 0.00 0.00 0.00 0.00 0.00 0.00 0.00 0.00 0.00 0.00 0.00 0.00 0.00 0.00 0.00 0.00 0.00
0.06 0.05 0.04 0.04 0.06 0.05 0.05 0.04 0.03 0.02 0.02 0.01 0.01 0.01 0.01 0.00 0.00 0.00 0.00 0.00 0.00 0.00 0.00 0.00 0.01 0.00 0.00 0.00 0.00 0.00 0.00 0.00 0.00 0.00 0.00 0.00 0.00 0.00 0.00 0.00 0.00 0.00 0.00 0.00 0.00 0.00 0.00
0.04 0.03 0.03 0.04 0.05 0.05 0.05 0.05 0.05 0.04 0.02 0.02 0.01 0.01 0.01 0.00 0.00 0.00 0.00 0.00 0.00 0.00 0.00 0.00 0.00 0.00 0.00 0.00 0.00 0.00 0.00 0.00 0.00 0.00 0.00 0.00 0.00 0.00 0.00 0.00 0.00 0.00 0.00 0.00 0.00 0.00 0.00
0.06 0.06 0.05 0.06 0.07 0.08 0.07 0.07 0.06 0.04 0.03 0.03 0.02 0.02 0.01 0.01 0.00 0.00 0.00 0.00 0.00 0.00 0.00 0.00 0.00 0.00 0.00 0.00 0.00 0.00 0.00 0.00 0.00 0.00 0.00 0.00 0.00 0.00 0.00 0.00 0.00 0.00 0.00 0.00 0.00 0.00 0.00
0.10 0.10 0.10 0.09 0.08 0.07 0.06 0.07 0.08 0.07 0.05 0.04 0.03 0.02 0.02 0.02 0.00 0.00 0.00 0.00 0.00 0.00 0.00 0.00 0.00 0.00 0.00 0.00 0.00 0.00 0.00 0.00 0.00 0.00 0.00 0.00 0.00 0.00 0.00 0.00 0.00 0.00 0.00 0.00 0.00 0.00 0.00
0.11 0.11 0.10 0.09 0.09 0.08 0.07 0.08 0.06 0.05 0.05 0.04 0.02 0.02 0.03 0.04 0.00 0.00 0.00 0.00 0.00 0.00 0.00 0.00 0.00 0.00 0.00 0.00 0.00 0.00 0.00 0.00 0.00 0.00 0.00 0.00 0.00 0.00 0.00 0.00 0.00 0.00 0.00 0.00 0.00 0.00 0.00
0.08 0.07 0.07 0.07 0.08 0.08 0.07 0.06 0.05 0.04 0.06 0.06 0.04 0.03 0.06 0.08 0.01 0.00 0.00 0.00 0.00 0.01 0.00 0.00 0.00 0.00 0.00 0.00 0.00 0.00 0.00 0.00 0.00 0.00 0.00 0.00 0.00 0.00 0.00 0.00 0.00 0.00 0.00 0.00 0.00 0.00 0.00
0.10 0.09 0.08 0.08 0.09 0.09 0.08 0.08 0.07 0.05 0.06 0.06 0.06 0.07 0.14 0.12 0.04 0.00 0.00 0.02 0.05 0.03 0.00 0.00 0.00 0.00 0.00 0.00 0.00 0.00 0.00 0.00 0.00 0.00 0.00 0.00 0.00 0.00 0.00 0.00 0.00 0.00 0.00 0.00 0.00 0.00 0.03
0.11 0.10 0.10 0.11 0.11 0.10 0.09 0.10 0.08 0.07 0.07 0.07 0.08 0.08 0.16 0.09 0.04 0.08 0.14 0.16 0.15 0.04 0.00 0.00 0.00 0.00 0.00 0.00 0.00 0.00 0.00 0.00 0.00 0.00 0.00 0.00 0.00 0.00 0.00 0.00 0.00 0.00 0.00 0.00 0.02 0.00 0.01
0.11 0.10 0.09 0.07 0.07 0.07 0.07 0.07 0.08 0.08 0.09 0.11 0.11 0.14 0.13 0.09 0.04 0.07 0.21 0.32 0.20 0.00 0.00 0.00 0.00 0.00 0.00 0.00 0.00 0.00 0.00 0.00 0.00 0.00 0.00 0.00 0.00 0.00 0.00 0.00 0.00 0.00 0.00 0.00 0.01 0.02 0.04
0.06 0.07 0.08 0.08 0.08 0.08 0.09 0.08 0.09 0.09 0.10 0.11 0.20 0.15 0.14 0.05 0.06 0.21 0.33 0.24 0.04 0.00 0.00 0.00 0.00 0.00 0.00 0.00 0.00 0.00 0.00 0.00 0.00 0.00 0.00 0.00 0.00 0.00 0.00 0.00 0.00 0.00 0.00 0.00 0.00 0.01 0.03
0.08 0.07 0.07 0.06 0.06 0.05 0.05 0.07 0.07 0.07 0.10 0.18 0.31 0.32 0.14 0.07 0.28 0.54 0.57 0.20 0.00 0.00 0.00 0.00 0.00 0.00 0.01 0.00 0.00 0.00 0.00 0.00 0.00 0.00 0.00 0.00 0.00 0.00 0.00 0.00 0.00 0.00 0.00 0.00 0.00 0.00 0.00
0.06 0.07 0.06 0.07 0.08 0.09 0.11 0.09 0.08 0.09 0.13 0.33 0.77 0.76 0.19 0.08 0.72 1.14 0.69 0.20 0.02 0.00 0.01 0.02 0.01 0.03 0.03 0.04 0.02 0.01 0.01 0.08 0.03 0.01 0.01 0.02 0.01 0.00 0.00 0.00 0.00 0.00 0.00 0.00 0.00 0.00 0.00
0.07 0.08 0.07 0.07 0.07 0.07 0.08 0.10 0.12 0.15 0.28 0.69 1.25 0.99 0.26 0.27 1.01 0.94 0.32 0.10 0.05 0.01 0.01 0.05 0.02 0.01 0.08 0.07 0.05 0.05 0.11 0.07 0.07 0.01 0.00 0.02 0.04 0.02 0.00 0.00 0.00 0.00 0.00 0.00 0.00 0.00 0.00
0.09 0.09 0.08 0.08 0.09 0.12 0.12 0.11 0.13 0.16 0.38 0.94 1.42 0.77 0.51 0.62 0.65 0.19 0.14 0.14 0.09 0.06 0.03 0.03 0.03 0.01 0.02 0.04 0.02 0.06 0.06 0.02 0.01 0.00 0.01 0.01 0.03 0.02 0.00 0.00 0.01 0.01 0.00 0.00 0.00 0.00 0.00
0.12 0.12 0.12 0.13 0.13 0.14 0.15 0.18 0.23 0.27 0.42 1.13 1.86 0.91 0.91 1.02 0.43 0.13 0.16 0.19 0.16 0.07 0.06 0.04 0.02 0.02 0.03 0.02 0.00 0.01 0.05 0.04 0.02 0.01 0.02 0.03 0.03 0.04 0.03 0.07 0.02 0.00 0.00 0.00 0.01 0.01 0.00
0.17 0.17 0.18 0.20 0.23 0.25 0.25 0.26 0.29 0.36 0.62 1.81 2.51 0.92 0.27 0.62 0.33 0.07 0.11 0.18 0.18 0.17 0.07 0.05 0.09 0.04 0.02 0.04 0.02 0.01 0.02 0.03 0.02 0.03 0.07 0.10 0.04 0.00 0.01 0.00 0.00 0.00 0.00 0.00 0.00 0.01 0.01
0.22 0.22 0.22 0.23 0.28 0.35 0.41 0.42 0.40 0.44 0.81 2.38 2.54 0.65 0.15 0.08 0.11 0.26 0.15 0.09 0.06 0.09 0.17 0.10 0.08 0.05 0.01 0.04 0.04 0.04 0.04 0.09 0.07 0.07 0.08 0.21 0.20 0.05 0.01 0.00 0.00 0.00 0.00 0.00 0.00 0.00 0.00
0.18 0.18 0.17 0.17 0.19 0.23 0.31 0.44 0.59 0.66 1.24 2.70 1.76 0.37 0.24 0.19 0.14 0.27 0.24 0.10 0.04 0.05 0.06 0.06 0.07 0.07 0.08 0.03 0.04 0.03 0.02 0.05 0.08 0.09 0.17 0.23 0.37 0.33 0.16 0.07 0.05 0.07 0.00 0.00 0.00 0.00 0.00
0.07 0.07 0.08 0.07 0.07 0.09 0.12 0.15 0.30 0.74 1.54 1.89 1.24 0.26 0.42 0.42 0.13 0.13 0.05 0.05 0.05 0.03 0.05 0.03 0.08 0.11 0.05 0.07 0.03 0.02 0.02 0.03 0.02 0.03 0.07 0.20 0.30 0.35 0.21 0.20 0.31 0.09 0.01 0.01 0.00 0.00 0.00
0.07 0.07 0.07 0.07 0.08 0.10 0.11 0.10 0.12 0.26 1.12 2.11 1.66 0.46 0.26 0.29 0.12 0.09 0.10 0.12 0.10 0.07 0.07 0.07 0.06 0.15 0.15 0.13 0.10 0.06 0.03 0.01 0.01 0.02 0.03 0.04 0.15 0.43 0.38 0.35 0.20 0.12 0.11 0.08 0.08 0.03 0.02
0.08 0.10 0.11 0.10 0.09 0.08 0.10 0.11 0.11 0.12 0.32 1.62 2.55 1.09 0.74 0.41 0.16 0.04 0.07 0.08 0.13 0.14 0.13 0.06 0.17 0.15 0.18 0.24 0.20 0.15 0.10 0.08 0.07 0.07 0.03 0.04 0.07 0.20 0.26 0.20 0.08 0.14 0.06 0.06 0.02 0.14 0.07
0.13 0.15 0.15 0.14 0.14 0.12 0.09 0.09 0.10 0.13 0.19 0.47 1.47 1.31 1.68 1.10 0.11 0.02 0.07 0.08 0.09 0.14 0.18 0.17 0.25 0.23 0.22 0.26 0.19 0.10 0.05 0.06 0.08 0.19 0.16 0.06 0.10 0.12 0.10 0.18 0.05 0.06 0.11 0.13 0.40 0.32 0.20
0.14 0.15 0.14 0.14 0.14 0.16 0.16 0.13 0.11 0.12 0.19 0.33 0.49 0.47 1.48 1.19 0.23 0.04 0.02 0.04 0.07 0.18 0.24 0.26 0.31 0.28 0.34 0.27 0.16 0.09 0.04 0.04 0.02 0.09 0.21 0.21 0.16 0.12 0.12 0.17 0.08 0.04 0.16 0.43 0.54 0.30 0.48
0.08 0.16 0.15 0.14 0.15 0.15 0.15 0.16 0.19 0.17 0.20 0.38 0.39 0.22 0.60 0.94 0.38 0.20 0.05 0.02 0.06 0.09 0.16 0.47 0.19 0.07 0.03 0.06 0.09 0.11 0.09 0.06 0.04 0.03 0.05 0.08 0.12 0.23 0.13 0.12 0.16 0.16 0.17 0.08 0.04 0.04 0.04

GFSGBSN_prec_precacc24_096.txt.gz
Total_Precipitation_Accumulation
0.03 0.02 0.03 0.03 0.03 0.02 0.02 0.01 0.02 0.01 0.00 0.00 0.00 0.00 0.00 0.00 0.00 0.00 0.00 0.00 0.00 0.00 0.00 0.00 0.00 0.00 0.00 0.00 0.00 0.00 0.00 0.00 0.00 0.00 0.00 0.00 0.00 0.00 0.00 0.00 0.00 0.00 0.00 0.00 0.00 0.00 0.00
0.03 0.03 0.03 0.03 0.02 0.01 0.02 0.02 0.02 0.01 0.00 0.00 0.00 0.00 0.00 0.00 0.00 0.00 0.00 0.00 0.00 0.00 0.00 0.00 0.00 0.00 0.00 0.00 0.00 0.00 0.00 0.00 0.00 0.00 0.00 0.00 0.00 0.00 0.00 0.00 0.00 0.00 0.00 0.00 0.00 0.00 0.00
0.04 0.04 0.03 0.04 0.03 0.02 0.02 0.02 0.02 0.01 0.02 0.01 0.01 0.01 0.00 0.00 0.00 0.00 0.00 0.00 0.00 0.00 0.00 0.00 0.00 0.01 0.00 0.00 0.00 0.00 0.00 0.00 0.00 0.00 0.00 0.00 0.00 0.00 0.00 0.00 0.00 0.00 0.00 0.00 0.00 0.00 0.00
0.04 0.04 0.05 0.06 0.05 0.04 0.03 0.02 0.02 0.01 0.02 0.01 0.01 0.00 0.00 0.00 0.00 0.00 0.00 0.00 0.00 0.00 0.00 0.00 0.00 0.01 0.00 0.00 0.00 0.00 0.00 0.00 0.00 0.00 0.00 0.00 0.00 0.00 0.00 0.00 0.00 0.00 0.00 0.00 0.00 0.00 0.00
0.06 0.06 0.06 0.05 0.06 0.05 0.04 0.03 0.02 0.01 0.01 0.01 0.01 0.01 0.00 0.00 0.00 0.00 0.00 0.00 0.00 0.00 0.00 0.00 0.00 0.00 0.00 0.00 0.00 0.00 0.00 0.00 0.00 0.00 0.00 0.00 0.00 0.00 0.00 0.00 0.00 0.00 0.00 0.00 0.00 0.00 0.00
0.06 0.06 0.05 0.05 0.06 0.05 0.05 0.05 0.03 0.02 0.02 0.02 0.02 0.02 0.01 0.00 0.00 0.00 0.00 0.00 0.00 0.00 0.00 0.00 0.00 0.00 0.00 0.00 0.00 0.00 0.00 0.00 0.00 0.00 0.00 0.00 0.00 0.00 0.00 0.00 0.00 0.00 0.00 0.00 0.00 0.00 0.00
0.05 0.04 0.03 0.04 0.05 0.05 0.06 0.06 0.08 0.07 0.04 0.03 0.02 0.02 0.02 0.01 0.00 0.00 0.00 0.00 0.00 0.00 0.00 0.00 0.00 0.00 0.00 0.00 0.00 0.00 0.00 0.00 0.00 0.00 0.00 0.00 0.00 0.00 0.00 0.00 0.00 0.00 0.00 0.00 0.00 0.00 0.00
0.06 0.06 0.06 0.07 0.08 0.09 0.09 0.10 0.09 0.07 0.05 0.04 0.04 0.04 0.02 0.01 0.00 0.00 0.00 0.00 0.00 0.00 0.00 0.00 0.00 0.00 0.00 0.00 0.00 0.00 0.00 0.00 0.00 0.00 0.00 0.00 0.00 0.00 0.00 0.00 0.00 0.00 0.00 0.00 0.00 0.00 0.00
0.10 0.10 0.10 0.09 0.09 0.07 0.07 0.07 0.08 0.09 0.08 0.07 0.05 0.04 0.03 0.02 0.00 0.00 0.00 0.00 0.00 0.00 0.00 0.00 0.00 0.00 0.00 0.00 0.00 0.00 0.00 0.00 0.00 0.00 0.00 0.00 0.00 0.00 0.00 0.00 0.00 0.00 0.00 0.00 0.00 0.00 0.00
0.11 0.11 0.10 0.09 0.09 0.09 0.08 0.07 0.06 0.06 0.07 0.06 0.06 0.05 0.04 0.03 0.00 0.00 0.00 0.00 0.00 0.00 0.00 0.00 0.00 0.00 0.00 0.00 0.00 0.00 0.00 0.00 0.00 0.00 0.00 0.00 0.00 0.00 0.00 0.00 0.00 0.00 0.00 0.00 0.00 0.00 0.00
0.08 0.07 0.07 0.07 0.08 0.08 0.07 0.05 0.05 0.05 0.06 0.08 0.06 0.06 0.06 0.07 0.01 0.00 0.00 0.00 0.00 0.01 0.00 0.00 0.00 0.00 0.00 0.00 0.00 0.00 0.00 0.00 0.00 0.00 0.00 0.00 0.00 0.00 0.00 0.00 0.00 0.00 0.00 0.00 0.00 0.00 0.00
0.10 0.09 0.08 0.08 0.09 0.09 0.09 0.09 0.10 0.08 0.08 0.08 0.10 0.09 0.14 0.10 0.03 0.00 0.00 0.02 0.04 0.02 0.00 0.00 0.00 0.00 0.00 0.00 0.00 0.00 0.00 0.00 0.00 0.00 0.00 0.00 0.00 0.00 0.00 0.00 0.00 0.00 0.00 0.00 0.00 0.00 0.03
0.11 0.10 0.10 0.11 0.11 0.10 0.10 0.10 0.09 0.08 0.07 0.08 0.11 0.11 0.16 0.08 0.04 0.08 0.14 0.15 0.11 0.02 0.00 0.00 0.00 0.00 0.00 0.00 0.00 0.00 0.00 0.00 0.00 0.00 0.00 0.00 0.00 0.00 0.00 0.00 0.00 0.00 0.00 0.00 0.02 0.00 0.01
0.12 0.11 0.09 0.08 0.08 0.09 0.09 0.07 0.07 0.07 0.07 0.11 0.12 0.13 0.11 0.08 0.04 0.07 0.21 0.36 0.16 0.00 0.00 0.00 0.00 0.00 0.00 0.00 0.00 0.00 0.00 0.00 0.00 0.00 0.00 0.00 0.00 0.00 0.00 0.00 0.00 0.00 0.00 0.00 0.01 0.02 0.04
0.06 0.07 0.08 0.08 0.08 0.08 0.08 0.08 0.09 0.08 0.09 0.11 0.16 0.11 0.12 0.05 0.06 0.20 0.34 0.27 0.04 0.00 0.00 0.00 0.00 0.00 0.00 0.00 0.00 0.00 0.00 0.00 0.00 0.00 0.00 0.00 0.00 0.00 0.00 0.00 0.00 0.00 0.00 0.00 0.00 0.01 0.03
0.07 0.07 0.06 0.06 0.05 0.05 0.05 0.06 0.07 0.08 0.09 0.15 0.18 0.19 0.12 0.07 0.28 0.53 0.58 0.20 0.00 0.00 0.00 0.00 0.00 0.00 0.00 0.00 0.00 0.00 0.00 0.00 0.00 0.00 0.00 0.00 0.00 0.00 0.00 0.00 0.00 0.00 0.00 0.00 0.00 0.01 0.00
0.06 0.05 0.05 0.06 0.07 0.09 0.11 0.09 0.09 0.10 0.13 0.26 0.43 0.48 0.13 0.08 0.68 1.13 0.68 0.19 0.02 0.00 0.01 0.02 0.01 0.04 0.04 0.05 0.01 0.00 0.02 0.09 0.05 0.02 0.03 0.03 0.02 0.00 0.00 0.00 0.00 0.00 0.00 0.00 0.00 0.00 0.00
0.05 0.05 0.05 0.05 0.05 0.05 0.08 0.10 0.12 0.12 0.21 0.47 0.75 0.71 0.23 0.27 0.93 0.93 0.32 0.09 0.05 0.01 0.01 0.05 0.02 0.02 0.14 0.19 0.08 0.05 0.12 0.16 0.10 0.06 0.02 0.04 0.05 0.02 0.00 0.00 0.00 0.00 0.00 0.00 0.00 0.00 0.00
0.07 0.06 0.06 0.06 0.08 0.10 0.11 0.09 0.11 0.13 0.29 0.68 0.94 0.53 0.46 0.66 0.64 0.19 0.14 0.14 0.09 0.06 0.03 0.04 0.05 0.04 0.08 0.13 0.07 0.13 0.12 0.12 0.16 0.09 0.03 0.03 0.04 0.02 0.00 0.01 0.02 0.02 0.00 0.00 0.00 0.00 0.00
0.09 0.10 0.11 0.11 0.11 0.11 0.13 0.16 0.20 0.25 0.33 0.90 1.34 0.62 0.74 0.99 0.49 0.17 0.17 0.19 0.16 0.07 0.06 0.04 0.02 0.02 0.04 0.03 0.02 0.05 0.14 0.13 0.04 0.07 0.04 0.03 0.03 0.04 0.03 0.07 0.03 0.03 0.01 0.00 0.01 0.01 0.00
0.14 0.15 0.16 0.18 0.20 0.22 0.22 0.23 0.27 0.36 0.58 1.46 1.83 0.69 0.21 0.59 0.32 0.10 0.14 0.19 0.18 0.17 0.08 0.06 0.09 0.05 0.03 0.06 0.03 0.02 0.07 0.08 0.08 0.05 0.07 0.10 0.04 0.00 0.01 0.00 0.00 0.00 0.02 0.00 0.02 0.02 0.02
0.22 0.22 0.24 0.25 0.30 0.37 0.42 0.40 0.36 0.45 0.79 1.96 1.88 0.52 0.15 0.08 0.11 0.27 0.16 0.09 0.06 0.09 0.18 0.13 0.10 0.07 0.04 0.05 0.06 0.06 0.06 0.08 0.10 0.08 0.08 0.21 0.20 0.05 0.01 0.00 0.00 0.00 0.00 0.00 0.00 0.00 0.00
0.18 0.19 0.19 0.19 0.21 0.25 0.33 0.49 0.62 0.66 1.19 2.26 1.24 0.29 0.24 0.19 0.13 0.24 0.24 0.10 0.05 0.05 0.06 0.07 0.07 0.08 0.09 0.03 0.05 0.03 0.05 0.05 0.06 0.08 0.17 0.23 0.37 0.33 0.16 0.07 0.04 0.03 0.00 0.00 0.00 0.00 0.00
0.07 0.07 0.08 0.07 0.07 0.09 0.14 0.19 0.36 0.81 1.49 1.60 0.83 0.19 0.36 0.36 0.13 0.13 0.05 0.05 0.05 0.04 0.07 0.04 0.08 0.12 0.05 0.08 0.03 0.01 0.03 0.03 0.01 0.01 0.06 0.20 0.30 0.35 0.21 0.20 0.25 0.07 0.01 0.01 0.00 0.00 0.00
0.06 0.06 0.05 0.05 0.07 0.10 0.11 0.11 0.15 0.32 1.18 1.89 1.29 0.32 0.16 0.21 0.11 0.09 0.10 0.12 0.10 0.07 0.07 0.07 0.07 0.16 0.15 0.13 0.10 0.04 0.01 0.01 0.00 0.00 0.00 0.03 0.14 0.43 0.38 0.34 0.19 0.13 0.11 0.08 0.08 0.03 0.02
0.07 0.09 0.11 0.10 0.09 0.08 0.10 0.11 0.11 0.15 0.40 1.64 2.13 0.85 0.51 0.31 0.16 0.04 0.07 0.08 0.13 0.14 0.13 0.06 0.19 0.17 0.20 0.28 0.29 0.12 0.09 0.08 0.07 0.06 0.01 0.02 0.05 0.19 0.26 0.20 0.07 0.15 0.07 0.06 0.02 0.14 0.07
0.13 0.14 0.15 0.14 0.13 0.12 0.10 0.09 0.10 0.14 0.20 0.61 1.25 1.12 1.32 0.93 0.09 0.02 0.07 0.08 0.09 0.15 0.19 0.17 0.29 0.28 0.26 0.26 0.20 0.10 0.05 0.06 0.08 0.21 0.16 0.04 0.09 0.12 0.10 0.18 0.05 0.06 0.11 0.13 0.44 0.43 0.21
0.12 0.12 0.13 0.14 0.14 0.16 0.18 0.15 0.11 0.12 0.20 0.33 0.29 0.41 1.24 0.93 0.21 0.04 0.02 0.04 0.07 0.18 0.26 0.29 0.34 0.28 0.34 0.27 0.16 0.09 0.04 0.04 0.03 0.14 0.39 0.22 0.16 0.12 0.12 0.18 0.08 0.04 0.16 0.43 0.68 0.38 0.48
0.05 0.06 0.08 0.11 0.13 0.14 0.16 0.18 0.19 0.16 0.19 0.34 0.27 0.20 0.45 0.73 0.36 0.20 0.05 0.02 0.06 0.09 0.18 0.53 0.30 0.08 0.03 0.06 0.07 0.10 0.09 0.08 0.07 0.09 0.20 0.11 0.12 0.23 0.13 0.12 0.17 0.16 0.17 0.07 0.04 0.04 0.04

GFSGBSN_prec_precacc24_102.txt.gz
Total_Precipitation_Accumulation
0.02 0.02 0.02 0.02 0.02 0.01 0.01 0.01 0.02 0.02 0.01 0.00 0.00 0.00 0.00 0.00 0.00 0.00 0.00 0.00 0.00 0.00 0.00 0.00 0.00 0.00 0.00 0.00 0.00 0.00 0.00 0.00 0.00 0.00 0.00 0.00 0.00 0.00 0.00 0.00 0.00 0.00 0.00 0.00 0.00 0.00 0.00
0.03 0.03 0.03 0.03 0.02 0.01 0.02 0.02 0.02 0.02 0.01 0.01 0.00 0.00 0.00 0.00 0.00 0.00 0.00 0.00 0.00 0.00 0.00 0.00 0.00 0.01 0.00 0.00 0.00 0.00 0.00 0.00 0.00 0.00 0.00 0.00 0.00 0.00 0.00 0.00 0.00 0.00 0.00 0.00 0.00 0.00 0.00
0.04 0.03 0.03 0.04 0.03 0.03 0.03 0.02 0.02 0.02 0.02 0.02 0.01 0.02 0.01 0.00 0.00 0.00 0.00 0.00 0.00 0.00 0.00 0.00 0.00 0.01 0.00 0.00 0.00 0.00 0.00 0.00 0.00 0.00 0.00 0.00 0.00 0.00 0.00 0.00 0.00 0.00 0.00 0.00 0.00 0.00 0.00
0.04 0.04 0.05 0.06 0.05 0.04 0.03 0.02 0.02 0.01 0.02 0.02 0.01 0.01 0.00 0.00 0.00 0.00 0.00 0.00 0.00 0.00 0.00 0.00 0.00 0.01 0.00 0.00 0.00 0.00 0.00 0.00 0.00 0.00 0.00 0.00 0.00 0.00 0.00 0.00 0.00 0.00 0.00 0.00 0.00 0.00 0.00
0.06 0.06 0.05 0.05 0.06 0.05 0.04 0.03 0.02 0.01 0.02 0.02 0.02 0.02 0.01 0.01 0.01 0.00 0.00 0.00 0.00 0.00 0.00 0.00 0.01 0.01 0.00 0.00 0.00 0.00 0.00 0.00 0.00 0.00 0.00 0.00 0.00 0.00 0.00 0.00 0.00 0.00 0.00 0.00 0.00 0.00 0.00
0.05 0.05 0.04 0.04 0.05 0.05 0.05 0.05 0.04 0.03 0.04 0.03 0.03 0.03 0.02 0.01 0.00 0.00 0.00 0.00 0.00 0.00 0.00 0.00 0.00 0.00 0.00 0.00 0.00 0.00 0.00 0.00 0.00 0.00 0.00 0.00 0.00 0.00 0.00 0.00 0.00 0.00 0.00 0.00 0.00 0.00 0.00
0.03 0.03 0.03 0.04 0.04 0.05 0.06 0.06 0.08 0.07 0.04 0.03 0.03 0.03 0.03 0.02 0.00 0.01 0.00 0.00 0.00 0.00 0.00 0.00 0.00 0.00 0.00 0.00 0.00 0.00 0.00 0.00 0.00 0.00 0.00 0.00 0.00 0.00 0.00 0.00 0.00 0.00 0.00 0.00 0.00 0.00 0.00
0.04 0.05 0.05 0.06 0.08 0.09 0.10 0.10 0.08 0.06 0.04 0.03 0.04 0.04 0.04 0.01 0.01 0.02 0.00 0.00 0.00 0.00 0.00 0.00 0.00 0.00 0.00 0.00 0.00 0.00 0.00 0.00 0.00 0.00 0.00 0.00 0.00 0.00 0.00 0.00 0.00 0.00 0.00 0.00 0.00 0.00 0.00
0.08 0.08 0.08 0.08 0.08 0.07 0.06 0.07 0.08 0.08 0.07 0.06 0.05 0.05 0.04 0.02 0.00 0.00 0.00 0.00 0.00 0.01 0.01 0.00 0.00 0.00 0.00 0.00 0.00 0.00 0.00 0.00 0.00 0.00 0.00 0.00 0.00 0.00 0.00 0.00 0.00 0.00 0.00 0.00 0.00 0.00 0.00
0.10 0.10 0.09 0.08 0.08 0.08 0.07 0.07 0.06 0.06 0.07 0.06 0.06 0.06 0.07 0.07 0.02 0.01 0.01 0.00 0.02 0.06 0.03 0.00 0.00 0.00 0.00 0.00 0.00 0.00 0.00 0.00 0.00 0.00 0.00 0.00 0.00 0.00 0.00 0.00 0.00 0.00 0.00 0.00 0.00 0.00 0.00
0.06 0.06 0.07 0.07 0.07 0.07 0.06 0.05 0.05 0.06 0.07 0.09 0.08 0.06 0.09 0.18 0.14 0.09 0.02 0.00 0.10 0.10 0.00 0.00 0.00 0.00 0.00 0.00 0.00 0.00 0.00 0.00 0.00 0.00 0.00 0.00 0.00 0.00 0.00 0.00 0.00 0.00 0.00 0.00 0.00 0.00 0.00
0.07 0.07 0.07 0.07 0.08 0.08 0.08 0.09 0.10 0.09 0.08 0.07 0.09 0.09 0.13 0.10 0.10 0.02 0.00 0.06 0.13 0.13 0.00 0.00 0.00 0.00 0.00 0.00 0.00 0.00 0.00 0.00 0.00 0.00 0.00 0.00 0.00 0.00 0.00 0.00 0.00 0.00 0.00 0.00 0.00 0.00 0.03
0.09 0.08 0.10 0.10 0.10 0.10 0.10 0.10 0.09 0.07 0.05 0.05 0.08 0.10 0.12 0.08 0.05 0.08 0.14 0.29 0.40 0.05 0.00 0.00 0.00 0.00 0.00 0.00 0.00 0.00 0.00 0.00 0.00 0.00 0.00 0.00 0.00 0.00 0.00 0.00 0.00 0.00 0.00 0.00 0.02 0.00 0.01
0.10 0.10 0.08 0.07 0.07 0.08 0.08 0.07 0.06 0.06 0.05 0.06 0.06 0.07 0.04 0.05 0.06 0.07 0.22 0.54 0.22 0.01 0.00 0.00 0.00 0.00 0.00 0.00 0.00 0.00 0.00 0.00 0.00 0.00 0.00 0.00 0.00 0.00 0.00 0.00 0.00 0.00 0.00 0.00 0.01 0.02 0.04
0.06 0.07 0.08 0.08 0.08 0.07 0.07 0.07 0.07 0.06 0.06 0.06 0.05 0.03 0.03 0.02 0.05 0.20 0.36 0.31 0.07 0.04 0.00 0.00 0.00 0.00 0.00 0.00 0.00 0.00 0.00 0.00 0.00 0.00 0.00 0.00 0.00 0.00 0.00 0.00 0.00 0.00 0.00 0.00 0.00 0.01 0.03
0.07 0.07 0.06 0.06 0.05 0.04 0.04 0.05 0.05 0.06 0.06 0.05 0.07 0.06 0.03 0.05 0.24 0.45 0.57 0.24 0.02 0.01 0.00 0.00 0.00 0.00 0.00 0.00 0.00 0.00 0.00 0.00 0.00 0.00 0.00 0.00 0.00 0.00 0.00 0.00 0.00 0.00 0.00 0.00 0.00 0.01 0.00
0.05 0.05 0.04 0.05 0.06 0.08 0.09 0.09 0.08 0.08 0.09 0.13 0.16 0.14 0.02 0.06 0.47 0.77 0.58 0.20 0.02 0.00 0.01 0.02 0.01 0.04 0.04 0.05 0.02 0.00 0.03 0.10 0.05 0.02 0.03 0.03 0.02 0.00 0.00 0.00 0.00 0.00 0.00 0.00 0.00 0.00 0.00
0.05 0.05 0.05 0.05 0.04 0.04 0.06 0.09 0.11 0.08 0.13 0.19 0.21 0.19 0.13 0.23 0.47 0.63 0.28 0.09 0.05 0.01 0.01 0.05 0.02 0.02 0.16 0.20 0.09 0.05 0.14 0.17 0.11 0.07 0.03 0.04 0.06 0.02 0.00 0.01 0.00 0.00 0.00 0.00 0.00 0.00 0.00
0.05 0.04 0.03 0.03 0.04 0.07 0.09 0.07 0.08 0.09 0.14 0.22 0.22 0.12 0.23 0.64 0.45 0.13 0.13 0.13 0.09 0.06 0.03 0.04 0.06 0.05 0.09 0.14 0.09 0.14 0.14 0.12 0.16 0.10 0.08 0.06 0.07 0.03 0.01 0.03 0.03 0.03 0.00 0.00 0.00 0.00 0.00
0.03 0.03 0.04 0.05 0.06 0.07 0.08 0.13 0.18 0.20 0.18 0.35 0.42 0.24 0.26 0.58 0.49 0.19 0.16 0.20 0.17 0.07 0.06 0.04 0.02 0.02 0.04 0.04 0.03 0.08 0.16 0.15 0.04 0.07 0.10 0.07 0.05 0.06 0.05 0.08 0.03 0.04 0.02 0.00 0.01 0.01 0.00
0.07 0.07 0.09 0.10 0.12 0.15 0.16 0.17 0.21 0.34 0.37 0.63 0.75 0.34 0.11 0.31 0.26 0.11 0.17 0.22 0.19 0.16 0.08 0.07 0.09 0.06 0.04 0.06 0.04 0.03 0.08 0.14 0.11 0.08 0.10 0.12 0.09 0.04 0.02 0.01 0.00 0.01 0.04 0.01 0.02 0.02 0.02
0.14 0.15 0.16 0.19 0.24 0.32 0.37 0.37 0.31 0.39 0.49 0.85 0.80 0.33 0.13 0.07 0.10 0.25 0.16 0.09 0.09 0.11 0.18 0.13 0.12 0.10 0.07 0.07 0.07 0.07 0.08 0.13 0.11 0.09 0.14 0.15 0.16 0.10 0.04 0.01 0.00 0.00 0.00 0.01 0.00 0.00 0.00
0.16 0.17 0.18 0.20 0.23 0.28 0.37 0.51 0.61 0.60 0.70 1.07 0.56 0.18 0.22 0.15 0.11 0.20 0.23 0.11 0.08 0.07 0.06 0.08 0.08 0.10 0.12 0.06 0.06 0.03 0.05 0.04 0.02 0.01 0.01 0.10 0.21 0.31 0.16 0.07 0.03 0.01 0.00 0.00 0.00 0.00 0.01
0.07 0.07 0.08 0.08 0.08 0.09 0.15 0.23 0.41 0.80 1.13 0.80 0.45 0.12 0.23 0.24 0.11 0.12 0.05 0.05 0.05 0.04 0.07 0.04 0.09 0.12 0.06 0.09 0.04 0.01 0.02 0.01 0.00 0.00 0.00 0.01 0.05 0.17 0.19 0.20 0.21 0.05 0.04 0.03 0.02 0.02 0.01
0.05 0.05 0.04 0.04 0.06 0.09 0.11 0.12 0.17 0.36 1.25 1.51 0.65 0.15 0.10 0.13 0.08 0.07 0.09 0.11 0.10 0.07 0.07 0.07 0.07 0.17 0.18 0.18 0.14 0.05 0.01 0.00 0.00 0.00 0.00 0.00 0.02 0.16 0.24 0.33 0.19 0.16 0.14 0.11 0.11 0.12 0.05
0.04 0.05 0.06 0.07 0.08 0.09 0.11 0.11 0.13 0.17 0.45 1.62 1.59 0.40 0.30 0.24 0.08 0.03 0.06 0.07 0.12 0.14 0.13 0.06 0.19 0.19 0.29 0.33 0.34 0.12 0.08 0.08 0.07 0.06 0.01 0.00 0.01 0.09 0.12 0.12 0.06 0.17 0.10 0.06 0.04 0.18 0.08
0.10 0.11 0.12 0.11 0.10 0.10 0.09 0.11 0.12 0.17 0.24 0.62 1.09 0.73 0.88 0.71 0.06 0.02 0.06 0.07 0.09 0.15 0.19 0.17 0.29 0.29 0.32 0.27 0.19 0.09 0.05 0.05 0.07 0.21 0.15 0.02 0.05 0.08 0.05 0.11 0.04 0.07 0.11 0.13 0.40 0.42 0.21
0.07 0.09 0.09 0.10 0.10 0.12 0.16 0.15 0.15 0.16 0.25 0.38 0.24 0.27 0.93 0.68 0.14 0.02 0.02 0.04 0.07 0.18 0.26 0.29 0.34 0.29 0.34 0.27 0.15 0.09 0.04 0.05 0.05 0.17 0.41 0.22 0.13 0.10 0.09 0.15 0.07 0.03 0.15 0.41 0.66 0.38 0.48
0.04 0.04 0.06 0.08 0.10 0.10 0.10 0.13 0.18 0.22 0.26 0.31 0.19 0.14 0.44 0.75 0.27 0.14 0.04 0.02 0.06 0.09 0.18 0.53 0.35 0.24 0.14 0.21 0.12 0.12 0.10 0.09 0.09 0.11 0.40 0.38 0.23 0.27 0.11 0.11 0.16 0.16 0.17 0.05 0.01 0.03 0.03

GFSGBSN_prec_precacc24_105.txt.gz
Total_Precipitation_Accumulation
0.02 0.01 0.02 0.01 0.02 0.01 0.01 0.01 0.02 0.02 0.01 0.00 0.00 0.00 0.00 0.00 0.00 0.00 0.00 0.00 0.00 0.00 0.00 0.00 0.00 0.00 0.00 0.00 0.00 0.00 0.00 0.00 0.00 0.00 0.00 0.00 0.00 0.00 0.00 0.00 0.00 0.00 0.00 0.00 0.00 0.00 0.00
0.02 0.03 0.03 0.03 0.02 0.02 0.02 0.02 0.01 0.02 0.01 0.01 0.00 0.00 0.00 0.00 0.00 0.00 0.00 0.00 0.00 0.00 0.00 0.00 0.00 0.01 0.00 0.00 0.00 0.00 0.00 0.00 0.00 0.00 0.00 0.00 0.00 0.00 0.00 0.00 0.00 0.00 0.00 0.00 0.00 0.00 0.00
0.03 0.03 0.03 0.03 0.02 0.03 0.02 0.02 0.02 0.02 0.02 0.02 0.01 0.02 0.01 0.00 0.00 0.00 0.00 0.00 0.00 0.00 0.00 0.00 0.00 0.02 0.00 0.00 0.00 0.00 0.00 0.00 0.00 0.00 0.00 0.00 0.00 0.00 0.00 0.00 0.00 0.00 0.00 0.00 0.00 0.00 0.00
0.03 0.04 0.04 0.05 0.04 0.03 0.02 0.02 0.02 0.01 0.02 0.02 0.02 0.01 0.00 0.00 0.00 0.00 0.00 0.00 0.00 0.00 0.00 0.00 0.00 0.02 0.00 0.00 0.00 0.00 0.00 0.00 0.00 0.00 0.00 0.00 0.00 0.00 0.00 0.00 0.00 0.00 0.00 0.00 0.00 0.00 0.00
0.04 0.04 0.05 0.04 0.04 0.04 0.03 0.02 0.02 0.01 0.02 0.02 0.02 0.02 0.01 0.01 0.01 0.00 0.00 0.00 0.00 0.00 0.00 0.00 0.01 0.01 0.00 0.00 0.00 0.00 0.00 0.00 0.00 0.00 0.00 0.00 0.00 0.00 0.00 0.00 0.00 0.00 0.00 0.00 0.00 0.00 0.00
0.04 0.04 0.03 0.03 0.04 0.04 0.04 0.04 0.03 0.03 0.03 0.03 0.03 0.02 0.02 0.01 0.00 0.00 0.00 0.00 0.00 0.00 0.00 0.00 0.00 0.00 0.00 0.00 0.00 0.00 0.00 0.00 0.00 0.00 0.00 0.00 0.00 0.00 0.00 0.00 0.00 0.00 0.00 0.00 0.00 0.00 0.00
0.02 0.02 0.02 0.03 0.03 0.04 0.05 0.06 0.07 0.06 0.04 0.03 0.02 0.03 0.03 0.02 0.00 0.01 0.01 0.00 0.00 0.01 0.01 0.00 0.00 0.00 0.00 0.00 0.00 0.00 0.00 0.00 0.00 0.00 0.00 0.00 0.00 0.00 0.00 0.00 0.00 0.00 0.00 0.00 0.00 0.00 0.00
0.03 0.04 0.04 0.05 0.07 0.08 0.09 0.09 0.08 0.06 0.04 0.03 0.03 0.04 0.04 0.01 0.01 0.01 0.00 0.00 0.00 0.06 0.08 0.00 0.00 0.00 0.00 0.00 0.00 0.00 0.00 0.00 0.00 0.00 0.00 0.01 0.01 0.00 0.00 0.00 0.00 0.00 0.00 0.00 0.00 0.00 0.00
0.07 0.08 0.08 0.08 0.08 0.07 0.06 0.06 0.07 0.07 0.06 0.05 0.05 0.05 0.04 0.02 0.00 0.00 0.00 0.00 0.00 0.06 0.17 0.01 0.00 0.00 0.00 0.00 0.00 0.00 0.00 0.00 0.00 0.00 0.00 0.02 0.00 0.00 0.00 0.00 0.00 0.00 0.00 0.00 0.00 0.00 0.00
0.08 0.07 0.07 0.07 0.08 0.08 0.07 0.06 0.05 0.05 0.06 0.06 0.06 0.06 0.06 0.06 0.02 0.01 0.01 0.00 0.02 0.19 0.29 0.01 0.00 0.00 0.00 0.00 0.00 0.00 0.00 0.00 0.00 0.00 0.00 0.00 0.00 0.00 0.00 0.00 0.00 0.00 0.00 0.00 0.00 0.00 0.00
0.03 0.03 0.04 0.05 0.06 0.06 0.05 0.04 0.04 0.06 0.06 0.09 0.08 0.06 0.08 0.16 0.14 0.09 0.02 0.00 0.12 0.28 0.13 0.00 0.00 0.00 0.00 0.00 0.00 0.00 0.00 0.00 0.00 0.00 0.00 0.00 0.00 0.00 0.00 0.00 0.00 0.00 0.00 0.00 0.00 0.00 0.00
0.06 0.05 0.04 0.05 0.06 0.07 0.07 0.08 0.09 0.09 0.08 0.07 0.09 0.07 0.09 0.08 0.10 0.02 0.00 0.06 0.15 0.46 0.08 0.01 0.01 0.00 0.00 0.00 0.00 0.00 0.00 0.00 0.00 0.00 0.00 0.00 0.00 0.00 0.00 0.00 0.00 0.00 0.00 0.00 0.00 0.00 0.03
0.07 0.06 0.07 0.08 0.08 0.08 0.08 0.09 0.09 0.07 0.05 0.05 0.08 0.08 0.07 0.06 0.05 0.08 0.14 0.29 0.44 0.18 0.01 0.02 0.03 0.06 0.01 0.00 0.00 0.00 0.00 0.00 0.00 0.00 0.00 0.00 0.00 0.00 0.00 0.00 0.00 0.00 0.00 0.00 0.02 0.00 0.01
0.08 0.07 0.06 0.05 0.06 0.07 0.07 0.06 0.05 0.06 0.04 0.06 0.06 0.04 0.01 0.02 0.06 0.07 0.22 0.55 0.33 0.14 0.00 0.00 0.06 0.14 0.03 0.01 0.00 0.00 0.00 0.00 0.00 0.00 0.00 0.00 0.00 0.00 0.00 0.00 0.00 0.00 0.00 0.00 0.01 0.02 0.04
0.05 0.06 0.07 0.07 0.07 0.06 0.06 0.06 0.06 0.05 0.06 0.05 0.03 0.01 0.01 0.00 0.04 0.20 0.35 0.31 0.17 0.14 0.00 0.00 0.01 0.07 0.05 0.02 0.01 0.02 0.01 0.00 0.00 0.00 0.00 0.00 0.00 0.00 0.00 0.00 0.00 0.00 0.00 0.00 0.00 0.01 0.03
0.06 0.06 0.05 0.04 0.04 0.04 0.03 0.04 0.05 0.06 0.05 0.04 0.04 0.03 0.00 0.01 0.17 0.41 0.51 0.23 0.02 0.02 0.00 0.00 0.00 0.01 0.02 0.00 0.01 0.02 0.03 0.03 0.01 0.00 0.00 0.00 0.00 0.00 0.00 0.00 0.00 0.00 0.00 0.00 0.00 0.01 0.00
0.04 0.03 0.03 0.04 0.06 0.08 0.09 0.08 0.08 0.08 0.09 0.09 0.09 0.06 0.00 0.01 0.34 0.50 0.49 0.19 0.02 0.00 0.01 0.02 0.01 0.04 0.04 0.05 0.02 0.01 0.07 0.12 0.05 0.03 0.03 0.03 0.02 0.00 0.00 0.00 0.00 0.00 0.00 0.00 0.00 0.00 0.00
0.04 0.05 0.05 0.05 0.04 0.04 0.06 0.09 0.11 0.08 0.11 0.12 0.12 0.07 0.06 0.20 0.31 0.35 0.21 0.09 0.05 0.01 0.01 0.05 0.02 0.03 0.16 0.20 0.09 0.05 0.14 0.17 0.11 0.08 0.04 0.05 0.06 0.02 0.00 0.01 0.00 0.00 0.00 0.00 0.00 0.00 0.00
0.05 0.04 0.02 0.02 0.04 0.07 0.08 0.07 0.07 0.08 0.10 0.15 0.14 0.03 0.11 0.55 0.36 0.09 0.09 0.10 0.09 0.06 0.03 0.04 0.06 0.05 0.09 0.14 0.09 0.14 0.14 0.12 0.16 0.10 0.08 0.06 0.07 0.04 0.01 0.03 0.03 0.03 0.00 0.00 0.00 0.00 0.00
0.03 0.03 0.03 0.03 0.04 0.04 0.04 0.07 0.14 0.16 0.13 0.26 0.24 0.13 0.08 0.32 0.37 0.19 0.16 0.18 0.16 0.07 0.06 0.04 0.02 0.02 0.04 0.04 0.03 0.08 0.16 0.15 0.04 0.07 0.10 0.06 0.04 0.04 0.04 0.08 0.03 0.04 0.02 0.00 0.01 0.01 0.00
0.05 0.05 0.06 0.06 0.07 0.08 0.09 0.10 0.15 0.27 0.25 0.38 0.40 0.14 0.05 0.12 0.14 0.10 0.17 0.22 0.19 0.17 0.08 0.07 0.09 0.06 0.04 0.06 0.04 0.03 0.08 0.14 0.11 0.08 0.11 0.12 0.09 0.04 0.01 0.01 0.00 0.01 0.04 0.01 0.02 0.02 0.02
0.11 0.12 0.13 0.14 0.18 0.23 0.25 0.25 0.24 0.33 0.40 0.58 0.51 0.24 0.05 0.03 0.08 0.20 0.15 0.09 0.14 0.12 0.18 0.13 0.12 0.10 0.07 0.07 0.07 0.07 0.08 0.13 0.11 0.07 0.14 0.16 0.14 0.08 0.03 0.01 0.00 0.00 0.00 0.01 0.00 0.00 0.00
0.15 0.16 0.16 0.17 0.20 0.24 0.29 0.39 0.46 0.50 0.59 0.78 0.42 0.12 0.18 0.10 0.07 0.15 0.16 0.10 0.09 0.06 0.05 0.08 0.08 0.09 0.12 0.06 0.06 0.03 0.05 0.04 0.02 0.01 0.01 0.05 0.05 0.05 0.01 0.01 0.02 0.01 0.00 0.00 0.00 0.00 0.01
0.07 0.07 0.08 0.08 0.08 0.09 0.15 0.21 0.35 0.63 0.92 0.60 0.33 0.10 0.16 0.18 0.10 0.10 0.05 0.05 0.05 0.04 0.07 0.04 0.08 0.11 0.06 0.09 0.04 0.01 0.02 0.01 0.00 0.00 0.00 0.01 0.01 0.05 0.03 0.02 0.12 0.06 0.05 0.03 0.02 0.02 0.01
0.05 0.05 0.04 0.03 0.06 0.08 0.10 0.11 0.16 0.31 1.00 1.17 0.46 0.14 0.10 0.09 0.06 0.07 0.09 0.11 0.10 0.07 0.05 0.07 0.07 0.16 0.16 0.17 0.16 0.08 0.05 0.02 0.01 0.00 0.00 0.00 0.01 0.06 0.05 0.05 0.07 0.16 0.17 0.12 0.12 0.12 0.06
0.04 0.05 0.05 0.06 0.06 0.08 0.09 0.09 0.11 0.18 0.42 1.31 1.19 0.29 0.23 0.20 0.06 0.03 0.06 0.07 0.12 0.14 0.12 0.06 0.19 0.18 0.29 0.31 0.33 0.14 0.10 0.09 0.08 0.07 0.01 0.00 0.01 0.05 0.07 0.07 0.02 0.17 0.12 0.06 0.06 0.18 0.08
0.09 0.10 0.10 0.09 0.09 0.09 0.09 0.10 0.11 0.18 0.27 0.54 0.89 0.55 0.72 0.61 0.04 0.02 0.05 0.07 0.09 0.14 0.17 0.17 0.26 0.27 0.30 0.21 0.18 0.10 0.05 0.05 0.07 0.21 0.13 0.01 0.07 0.08 0.04 0.08 0.03 0.07 0.11 0.13 0.41 0.41 0.20
0.05 0.06 0.07 0.08 0.09 0.11 0.15 0.14 0.13 0.16 0.28 0.46 0.32 0.24 0.74 0.55 0.05 0.02 0.02 0.04 0.07 0.18 0.25 0.28 0.28 0.26 0.31 0.21 0.12 0.08 0.05 0.05 0.06 0.19 0.40 0.20 0.09 0.07 0.06 0.12 0.06 0.01 0.11 0.36 0.64 0.37 0.47
0.04 0.05 0.06 0.07 0.08 0.08 0.08 0.11 0.16 0.20 0.27 0.37 0.28 0.15 0.40 0.66 0.17 0.05 0.03 0.02 0.06 0.09 0.18 0.52 0.34 0.25 0.15 0.29 0.23 0.16 0.11 0.10 0.10 0.12 0.41 0.40 0.26 0.32 0.09 0.10 0.15 0.15 0.16 0.03 0.01 0.01 0.02

GFSGBSN_prec_precacc24_108.txt.gz
Total_Precipitation_Accumulation
0.01 0.01 0.02 0.01 0.02 0.01 0.01 0.01 0.02 0.01 0.01 0.00 0.00 0.00 0.00 0.00 0.00 0.00 0.00 0.00 0.00 0.00 0.00 0.00 0.00 0.00 0.00 0.00 0.00 0.00 0.00 0.00 0.00 0.00 0.00 0.00 0.00 0.00 0.00 0.00 0.00 0.00 0.00 0.00 0.00 0.00 0.00
0.02 0.02 0.02 0.02 0.02 0.02 0.02 0.01 0.01 0.01 0.01 0.01 0.00 0.00 0.00 0.00 0.00 0.00 0.00 0.00 0.00 0.00 0.00 0.00 0.00 0.01 0.00 0.00 0.00 0.00 0.00 0.00 0.00 0.00 0.00 0.00 0.00 0.00 0.00 0.00 0.00 0.00 0.00 0.00 0.00 0.00 0.00
0.03 0.03 0.02 0.02 0.02 0.02 0.02 0.01 0.01 0.02 0.01 0.02 0.01 0.01 0.01 0.00 0.00 0.00 0.00 0.00 0.00 0.00 0.00 0.00 0.00 0.02 0.00 0.00 0.00 0.00 0.00 0.00 0.00 0.00 0.00 0.00 0.00 0.00 0.00 0.00 0.00 0.00 0.00 0.00 0.00 0.00 0.00
0.02 0.02 0.03 0.04 0.04 0.03 0.01 0.01 0.01 0.01 0.02 0.01 0.01 0.01 0.00 0.00 0.00 0.00 0.00 0.00 0.00 0.00 0.00 0.00 0.00 0.02 0.00 0.00 0.00 0.00 0.00 0.00 0.00 0.00 0.00 0.00 0.00 0.00 0.00 0.00 0.00 0.00 0.00 0.00 0.00 0.00 0.00
0.03 0.03 0.03 0.03 0.04 0.03 0.02 0.02 0.01 0.01 0.02 0.02 0.02 0.01 0.01 0.01 0.01 0.00 0.00 0.00 0.00 0.00 0.00 0.00 0.01 0.01 0.00 0.00 0.00 0.00 0.00 0.00 0.00 0.00 0.00 0.00 0.00 0.00 0.00 0.00 0.00 0.00 0.00 0.00 0.00 0.00 0.00
0.02 0.03 0.02 0.01 0.02 0.03 0.03 0.03 0.02 0.02 0.03 0.03 0.02 0.02 0.02 0.01 0.00 0.00 0.00 0.00 0.00 0.00 0.00 0.00 0.01 0.01 0.00 0.00 0.00 0.00 0.00 0.00 0.00 0.00 0.00 0.00 0.00 0.00 0.00 0.00 0.00 0.00 0.00 0.00 0.00 0.00 0.00
0.02 0.02 0.02 0.02 0.02 0.03 0.04 0.05 0.06 0.06 0.03 0.03 0.02 0.03 0.03 0.02 0.00 0.01 0.01 0.00 0.00 0.01 0.01 0.01 0.01 0.01 0.00 0.00 0.00 0.00 0.00 0.00 0.00 0.00 0.00 0.00 0.00 0.00 0.00 0.00 0.00 0.00 0.00 0.00 0.00 0.00 0.00
0.02 0.03 0.03 0.04 0.05 0.07 0.08 0.08 0.07 0.05 0.04 0.03 0.03 0.04 0.04 0.01 0.01 0.01 0.00 0.00 0.01 0.08 0.11 0.00 0.00 0.00 0.00 0.00 0.00 0.00 0.00 0.00 0.00 0.00 0.00 0.01 0.02 0.00 0.00 0.00 0.00 0.02 0.02 0.00 0.00 0.00 0.00
0.06 0.07 0.07 0.07 0.06 0.05 0.05 0.05 0.06 0.06 0.06 0.05 0.04 0.05 0.04 0.01 0.00 0.00 0.00 0.00 0.00 0.06 0.17 0.01 0.00 0.00 0.00 0.00 0.00 0.00 0.00 0.00 0.00 0.00 0.00 0.02 0.00 0.00 0.00 0.00 0.00 0.00 0.01 0.00 0.00 0.00 0.00
0.07 0.06 0.05 0.05 0.05 0.06 0.06 0.05 0.05 0.05 0.05 0.06 0.06 0.06 0.06 0.05 0.02 0.01 0.01 0.00 0.02 0.19 0.29 0.01 0.01 0.01 0.00 0.00 0.00 0.00 0.00 0.00 0.00 0.00 0.00 0.00 0.00 0.00 0.00 0.00 0.00 0.00 0.00 0.00 0.00 0.01 0.00
0.02 0.03 0.03 0.04 0.04 0.04 0.04 0.03 0.04 0.05 0.06 0.09 0.08 0.05 0.07 0.14 0.13 0.09 0.02 0.00 0.12 0.28 0.14 0.01 0.10 0.02 0.02 0.00 0.00 0.00 0.00 0.00 0.00 0.00 0.00 0.00 0.00 0.00 0.00 0.00 0.00 0.01 0.00 0.00 0.00 0.00 0.00
0.06 0.05 0.04 0.04 0.05 0.06 0.06 0.07 0.09 0.08 0.08 0.07 0.09 0.07 0.07 0.06 0.08 0.02 0.00 0.06 0.15 0.46 0.10 0.03 0.13 0.10 0.07 0.01 0.00 0.00 0.00 0.00 0.00 0.00 0.00 0.00 0.00 0.00 0.00 0.00 0.00 0.00 0.00 0.00 0.00 0.00 0.03
0.06 0.06 0.07 0.07 0.07 0.07 0.06 0.07 0.08 0.07 0.05 0.05 0.08 0.08 0.05 0.02 0.04 0.08 0.14 0.28 0.44 0.22 0.02 0.02 0.08 0.24 0.12 0.07 0.02 0.00 0.00 0.00 0.00 0.00 0.00 0.00 0.00 0.00 0.00 0.00 0.00 0.00 0.00 0.00 0.02 0.00 0.01
0.08 0.07 0.05 0.04 0.04 0.05 0.06 0.05 0.05 0.05 0.04 0.06 0.06 0.03 0.00 0.00 0.03 0.05 0.20 0.54 0.32 0.19 0.01 0.00 0.11 0.22 0.16 0.07 0.07 0.00 0.00 0.00 0.00 0.00 0.00 0.00 0.00 0.00 0.00 0.00 0.00 0.00 0.00 0.00 0.01 0.02 0.04
0.04 0.06 0.07 0.06 0.05 0.06 0.05 0.05 0.05 0.04 0.06 0.05 0.02 0.00 0.00 0.00 0.02 0.15 0.31 0.28 0.17 0.16 0.00 0.00 0.01 0.10 0.10 0.08 0.12 0.11 0.03 0.01 0.00 0.00 0.00 0.00 0.00 0.00 0.00 0.00 0.00 0.00 0.00 0.00 0.00 0.01 0.03
0.06 0.06 0.04 0.03 0.03 0.02 0.02 0.03 0.04 0.05 0.05 0.03 0.02 0.01 0.00 0.00 0.10 0.26 0.39 0.20 0.02 0.02 0.00 0.00 0.00 0.01 0.10 0.06 0.12 0.22 0.08 0.06 0.01 0.00 0.00 0.00 0.00 0.00 0.00 0.00 0.00 0.00 0.00 0.00 0.00 0.01 0.00
0.02 0.01 0.01 0.03 0.05 0.06 0.08 0.08 0.08 0.08 0.09 0.07 0.03 0.03 0.00 0.00 0.26 0.33 0.29 0.15 0.02 0.00 0.01 0.02 0.01 0.04 0.05 0.06 0.06 0.16 0.19 0.24 0.08 0.04 0.03 0.03 0.02 0.00 0.00 0.00 0.00 0.00 0.00 0.00 0.00 0.00 0.00
0.01 0.03 0.05 0.05 0.04 0.04 0.06 0.09 0.11 0.07 0.10 0.05 0.07 0.04 0.04 0.15 0.23 0.14 0.09 0.07 0.05 0.01 0.01 0.05 0.02 0.03 0.16 0.20 0.09 0.06 0.15 0.22 0.14 0.16 0.08 0.05 0.06 0.03 0.00 0.01 0.00 0.00 0.00 0.00 0.00 0.00 0.00
0.05 0.04 0.02 0.02 0.04 0.07 0.08 0.07 0.07 0.08 0.08 0.10 0.10 0.01 0.06 0.42 0.26 0.05 0.01 0.04 0.08 0.06 0.03 0.04 0.06 0.05 0.09 0.14 0.09 0.14 0.14 0.12 0.16 0.11 0.11 0.08 0.09 0.07 0.04 0.06 0.05 0.03 0.00 0.00 0.00 0.00 0.00
0.03 0.04 0.03 0.04 0.03 0.03 0.03 0.07 0.13 0.17 0.12 0.18 0.19 0.08 0.04 0.21 0.31 0.16 0.14 0.12 0.09 0.07 0.06 0.04 0.03 0.02 0.04 0.04 0.04 0.08 0.16 0.15 0.04 0.07 0.11 0.07 0.04 0.04 0.05 0.09 0.04 0.05 0.02 0.00 0.01 0.01 0.00
0.05 0.04 0.05 0.04 0.04 0.04 0.04 0.06 0.12 0.24 0.20 0.25 0.18 0.08 0.03 0.09 0.09 0.07 0.14 0.19 0.17 0.15 0.07 0.07 0.09 0.06 0.04 0.06 0.04 0.03 0.09 0.14 0.11 0.08 0.13 0.13 0.10 0.04 0.01 0.00 0.00 0.02 0.04 0.01 0.02 0.02 0.02
0.08 0.09 0.11 0.11 0.14 0.16 0.17 0.17 0.18 0.27 0.31 0.29 0.10 0.05 0.01 0.01 0.05 0.17 0.11 0.05 0.12 0.11 0.17 0.13 0.12 0.10 0.07 0.07 0.09 0.07 0.08 0.14 0.12 0.08 0.15 0.18 0.15 0.08 0.03 0.01 0.00 0.00 0.00 0.01 0.00 0.00 0.00
0.13 0.14 0.15 0.16 0.19 0.21 0.22 0.28 0.36 0.41 0.47 0.46 0.19 0.05 0.11 0.06 0.02 0.09 0.13 0.09 0.08 0.06 0.05 0.08 0.08 0.09 0.12 0.06 0.05 0.03 0.05 0.04 0.02 0.01 0.02 0.06 0.07 0.05 0.02 0.01 0.01 0.00 0.00 0.00 0.00 0.00 0.01
0.07 0.07 0.08 0.08 0.08 0.09 0.14 0.21 0.35 0.56 0.71 0.42 0.20 0.05 0.11 0.09 0.07 0.06 0.03 0.04 0.03 0.03 0.07 0.04 0.08 0.11 0.05 0.08 0.03 0.01 0.02 0.01 0.00 0.00 0.00 0.02 0.02 0.05 0.03 0.00 0.00 0.03 0.04 0.03 0.02 0.02 0.01
0.05 0.05 0.04 0.03 0.06 0.07 0.09 0.11 0.17 0.33 0.89 0.89 0.32 0.10 0.08 0.06 0.02 0.04 0.07 0.09 0.08 0.05 0.04 0.06 0.07 0.16 0.13 0.15 0.15 0.09 0.09 0.05 0.05 0.01 0.00 0.00 0.02 0.07 0.03 0.01 0.00 0.07 0.12 0.11 0.12 0.12 0.07
0.04 0.05 0.06 0.06 0.07 0.07 0.07 0.08 0.11 0.18 0.44 1.10 0.85 0.20 0.20 0.19 0.05 0.01 0.03 0.04 0.09 0.11 0.08 0.05 0.17 0.16 0.25 0.28 0.28 0.14 0.13 0.12 0.12 0.12 0.03 0.01 0.02 0.05 0.04 0.05 0.01 0.16 0.20 0.02 0.09 0.13 0.08
0.09 0.10 0.09 0.08 0.08 0.07 0.09 0.10 0.10 0.17 0.29 0.51 0.68 0.37 0.66 0.54 0.03 0.01 0.04 0.05 0.07 0.12 0.13 0.15 0.20 0.21 0.23 0.14 0.15 0.12 0.08 0.06 0.09 0.24 0.15 0.03 0.10 0.10 0.04 0.06 0.02 0.06 0.16 0.13 0.37 0.32 0.19
0.05 0.05 0.06 0.07 0.07 0.07 0.10 0.13 0.13 0.15 0.28 0.53 0.36 0.13 0.62 0.51 0.04 0.02 0.01 0.03 0.06 0.17 0.22 0.25 0.19 0.16 0.18 0.14 0.11 0.11 0.10 0.07 0.09 0.24 0.39 0.15 0.10 0.09 0.07 0.09 0.04 0.01 0.11 0.34 0.54 0.31 0.44
0.03 0.04 0.05 0.07 0.08 0.07 0.07 0.08 0.15 0.19 0.25 0.39 0.34 0.12 0.32 0.66 0.14 0.01 0.02 0.01 0.06 0.09 0.17 0.50 0.33 0.25 0.15 0.28 0.25 0.17 0.13 0.11 0.13 0.17 0.43 0.42 0.24 0.29 0.08 0.09 0.14 0.14 0.15 0.02 0.00 0.00 0.01

GFSGBSN_prec_precacc24_111.txt.gz
Total_Precipitation_Accumulation
0.01 0.01 0.01 0.01 0.02 0.01 0.02 0.01 0.01 0.01 0.01 0.00 0.00 0.00 0.00 0.00 0.00 0.00 0.00 0.00 0.00 0.00 0.00 0.00 0.00 0.00 0.00 0.00 0.00 0.00 0.00 0.00 0.00 0.00 0.00 0.00 0.00 0.00 0.00 0.00 0.00 0.00 0.00 0.00 0.00 0.00 0.00
0.02 0.02 0.02 0.02 0.02 0.02 0.02 0.01 0.01 0.01 0.01 0.00 0.00 0.00 0.00 0.00 0.00 0.00 0.00 0.00 0.00 0.00 0.00 0.00 0.00 0.01 0.00 0.00 0.00 0.00 0.00 0.00 0.00 0.00 0.00 0.00 0.00 0.00 0.00 0.00 0.00 0.00 0.00 0.00 0.00 0.00 0.00
0.02 0.02 0.02 0.02 0.02 0.02 0.02 0.01 0.01 0.01 0.01 0.01 0.01 0.01 0.01 0.00 0.00 0.00 0.00 0.00 0.00 0.00 0.00 0.00 0.00 0.02 0.00 0.00 0.00 0.00 0.00 0.00 0.00 0.00 0.00 0.00 0.00 0.00 0.00 0.00 0.00 0.00 0.00 0.00 0.00 0.00 0.00
0.02 0.02 0.02 0.02 0.03 0.03 0.01 0.01 0.01 0.01 0.01 0.01 0.01 0.01 0.00 0.00 0.00 0.00 0.00 0.00 0.00 0.00 0.00 0.00 0.00 0.02 0.00 0.00 0.00 0.00 0.00 0.00 0.00 0.00 0.00 0.00 0.00 0.00 0.00 0.00 0.00 0.00 0.00 0.00 0.00 0.00 0.00
0.02 0.02 0.02 0.02 0.02 0.02 0.02 0.02 0.01 0.01 0.02 0.02 0.02 0.01 0.01 0.01 0.01 0.00 0.00 0.00 0.00 0.00 0.00 0.00 0.01 0.01 0.00 0.00 0.00 0.00 0.00 0.00 0.00 0.00 0.00 0.00 0.00 0.00 0.00 0.00 0.00 0.00 0.00 0.00 0.00 0.00 0.00
0.02 0.02 0.01 0.01 0.02 0.01 0.02 0.02 0.02 0.02 0.03 0.03 0.02 0.02 0.02 0.01 0.00 0.00 0.00 0.00 0.00 0.00 0.00 0.00 0.01 0.01 0.00 0.00 0.00 0.00 0.00 0.00 0.00 0.00 0.00 0.00 0.00 0.00 0.00 0.00 0.00 0.00 0.00 0.00 0.00 0.00 0.00
0.02 0.02 0.02 0.02 0.02 0.02 0.03 0.04 0.06 0.05 0.03 0.03 0.02 0.03 0.03 0.01 0.00 0.01 0.01 0.00 0.00 0.01 0.01 0.01 0.01 0.01 0.00 0.00 0.00 0.00 0.00 0.00 0.00 0.00 0.00 0.00 0.00 0.00 0.00 0.00 0.00 0.00 0.00 0.00 0.00 0.00 0.00
0.01 0.02 0.02 0.04 0.05 0.06 0.07 0.07 0.06 0.05 0.04 0.03 0.03 0.04 0.03 0.01 0.01 0.01 0.00 0.00 0.01 0.08 0.11 0.00 0.00 0.00 0.00 0.00 0.00 0.00 0.00 0.01 0.01 0.01 0.00 0.01 0.02 0.00 0.00 0.00 0.00 0.02 0.02 0.00 0.00 0.00 0.00
0.04 0.06 0.07 0.07 0.06 0.05 0.04 0.04 0.06 0.06 0.06 0.05 0.04 0.04 0.04 0.01 0.00 0.00 0.00 0.00 0.00 0.06 0.17 0.01 0.00 0.00 0.00 0.01 0.00 0.00 0.00 0.00 0.04 0.02 0.00 0.02 0.00 0.00 0.00 0.00 0.00 0.00 0.01 0.00 0.00 0.00 0.00
0.07 0.05 0.04 0.04 0.04 0.04 0.04 0.03 0.04 0.04 0.05 0.05 0.06 0.06 0.06 0.05 0.02 0.01 0.01 0.00 0.02 0.20 0.30 0.01 0.02 0.03 0.04 0.07 0.01 0.00 0.00 0.00 0.04 0.03 0.00 0.00 0.00 0.00 0.00 0.00 0.00 0.00 0.00 0.00 0.01 0.02 0.01
0.02 0.02 0.03 0.04 0.03 0.02 0.03 0.02 0.03 0.04 0.06 0.08 0.08 0.05 0.07 0.13 0.13 0.09 0.02 0.00 0.12 0.28 0.14 0.01 0.11 0.05 0.07 0.04 0.00 0.01 0.00 0.00 0.01 0.02 0.00 0.00 0.00 0.00 0.00 0.00 0.00 0.01 0.00 0.01 0.00 0.00 0.00
0.05 0.04 0.03 0.04 0.05 0.05 0.05 0.06 0.07 0.07 0.06 0.07 0.09 0.07 0.07 0.06 0.07 0.02 0.00 0.05 0.15 0.47 0.11 0.03 0.14 0.10 0.14 0.09 0.01 0.01 0.00 0.00 0.00 0.02 0.02 0.00 0.00 0.00 0.00 0.00 0.00 0.00 0.00 0.00 0.00 0.00 0.03
0.04 0.04 0.05 0.06 0.06 0.06 0.05 0.05 0.07 0.06 0.05 0.05 0.08 0.08 0.04 0.01 0.02 0.04 0.09 0.25 0.43 0.23 0.02 0.02 0.08 0.25 0.16 0.18 0.16 0.01 0.00 0.00 0.00 0.00 0.02 0.01 0.01 0.00 0.00 0.00 0.00 0.00 0.00 0.01 0.03 0.01 0.01
0.05 0.06 0.05 0.03 0.03 0.03 0.04 0.03 0.03 0.05 0.04 0.06 0.06 0.03 0.00 0.00 0.01 0.01 0.13 0.48 0.32 0.19 0.01 0.00 0.11 0.23 0.24 0.16 0.22 0.03 0.00 0.00 0.00 0.00 0.00 0.00 0.00 0.00 0.00 0.00 0.00 0.00 0.00 0.01 0.02 0.03 0.04
0.03 0.05 0.06 0.06 0.05 0.04 0.02 0.03 0.04 0.04 0.06 0.05 0.02 0.00 0.00 0.00 0.00 0.05 0.23 0.22 0.16 0.16 0.00 0.00 0.01 0.10 0.11 0.11 0.40 0.36 0.09 0.07 0.04 0.01 0.02 0.00 0.00 0.00 0.00 0.00 0.00 0.00 0.00 0.00 0.00 0.01 0.04
0.04 0.05 0.03 0.02 0.02 0.02 0.01 0.02 0.03 0.04 0.05 0.02 0.01 0.01 0.00 0.00 0.03 0.13 0.25 0.14 0.02 0.02 0.00 0.00 0.00 0.02 0.12 0.08 0.21 0.69 0.22 0.10 0.03 0.01 0.03 0.03 0.00 0.00 0.00 0.00 0.00 0.00 0.00 0.00 0.00 0.01 0.00
0.02 0.01 0.01 0.02 0.03 0.04 0.06 0.07 0.07 0.07 0.09 0.06 0.01 0.02 0.00 0.00 0.14 0.19 0.11 0.06 0.01 0.00 0.01 0.02 0.02 0.05 0.06 0.06 0.13 0.34 0.36 0.32 0.08 0.04 0.04 0.07 0.04 0.00 0.00 0.00 0.00 0.00 0.00 0.00 0.00 0.00 0.00
0.01 0.01 0.02 0.02 0.02 0.03 0.05 0.08 0.10 0.07 0.09 0.03 0.04 0.03 0.02 0.06 0.15 0.09 0.02 0.01 0.02 0.00 0.01 0.05 0.03 0.04 0.17 0.20 0.09 0.08 0.20 0.32 0.21 0.23 0.09 0.06 0.12 0.06 0.01 0.01 0.00 0.00 0.00 0.00 0.00 0.00 0.00
0.03 0.03 0.02 0.02 0.03 0.06 0.08 0.07 0.07 0.08 0.07 0.05 0.07 0.00 0.03 0.27 0.16 0.03 0.00 0.00 0.04 0.05 0.02 0.04 0.07 0.06 0.10 0.14 0.10 0.14 0.14 0.12 0.16 0.17 0.22 0.12 0.15 0.13 0.09 0.09 0.06 0.04 0.00 0.00 0.00 0.00 0.00
0.03 0.03 0.03 0.04 0.04 0.03 0.03 0.07 0.13 0.16 0.10 0.11 0.13 0.05 0.01 0.13 0.25 0.12 0.09 0.09 0.03 0.03 0.05 0.04 0.02 0.02 0.04 0.04 0.04 0.09 0.17 0.15 0.04 0.08 0.11 0.10 0.09 0.09 0.12 0.13 0.06 0.08 0.03 0.00 0.01 0.01 0.00
0.04 0.04 0.04 0.03 0.03 0.03 0.02 0.04 0.11 0.23 0.17 0.16 0.13 0.05 0.02 0.07 0.08 0.06 0.11 0.12 0.11 0.08 0.04 0.06 0.08 0.05 0.04 0.06 0.03 0.03 0.09 0.14 0.11 0.09 0.14 0.14 0.13 0.05 0.03 0.02 0.03 0.03 0.04 0.01 0.02 0.02 0.02
0.05 0.06 0.08 0.08 0.10 0.12 0.12 0.12 0.12 0.22 0.24 0.19 0.05 0.01 0.00 0.01 0.04 0.14 0.08 0.02 0.09 0.06 0.11 0.10 0.11 0.09 0.07 0.07 0.08 0.06 0.07 0.13 0.12 0.08 0.15 0.18 0.16 0.07 0.03 0.01 0.00 0.00 0.00 0.01 0.00 0.00 0.00
0.08 0.09 0.11 0.12 0.15 0.17 0.18 0.22 0.28 0.33 0.33 0.21 0.04 0.01 0.03 0.02 0.01 0.05 0.09 0.07 0.07 0.03 0.03 0.07 0.07 0.07 0.11 0.05 0.05 0.03 0.04 0.04 0.02 0.02 0.04 0.07 0.09 0.05 0.03 0.00 0.00 0.00 0.00 0.00 0.00 0.00 0.01
0.03 0.05 0.06 0.06 0.06 0.07 0.13 0.20 0.31 0.46 0.53 0.19 0.05 0.01 0.08 0.06 0.02 0.03 0.01 0.01 0.01 0.01 0.04 0.02 0.08 0.09 0.03 0.08 0.03 0.01 0.03 0.02 0.00 0.00 0.01 0.05 0.03 0.05 0.04 0.01 0.00 0.04 0.04 0.02 0.02 0.05 0.02
0.04 0.04 0.04 0.03 0.04 0.06 0.08 0.10 0.16 0.32 0.76 0.61 0.16 0.06 0.06 0.04 0.01 0.01 0.03 0.05 0.04 0.01 0.02 0.02 0.05 0.15 0.11 0.15 0.13 0.10 0.12 0.11 0.09 0.03 0.01 0.01 0.04 0.09 0.04 0.03 0.02 0.08 0.13 0.10 0.13 0.14 0.07
0.04 0.05 0.06 0.05 0.05 0.06 0.07 0.07 0.09 0.16 0.45 0.96 0.55 0.10 0.16 0.16 0.04 0.00 0.00 0.02 0.06 0.07 0.05 0.02 0.13 0.13 0.25 0.26 0.25 0.15 0.16 0.16 0.16 0.20 0.05 0.03 0.02 0.07 0.06 0.05 0.05 0.23 0.25 0.03 0.14 0.15 0.04
0.09 0.10 0.09 0.08 0.07 0.06 0.07 0.08 0.09 0.15 0.28 0.51 0.57 0.24 0.58 0.47 0.02 0.01 0.02 0.02 0.03 0.08 0.08 0.12 0.15 0.16 0.21 0.09 0.11 0.13 0.12 0.08 0.12 0.34 0.23 0.08 0.13 0.12 0.08 0.06 0.03 0.06 0.16 0.15 0.33 0.27 0.03
0.05 0.05 0.06 0.07 0.07 0.07 0.08 0.11 0.12 0.13 0.26 0.53 0.38 0.10 0.53 0.46 0.03 0.01 0.01 0.02 0.03 0.12 0.16 0.21 0.14 0.12 0.11 0.08 0.10 0.13 0.16 0.13 0.14 0.28 0.39 0.17 0.16 0.17 0.14 0.11 0.05 0.01 0.09 0.35 0.56 0.14 0.07
0.05 0.04 0.04 0.06 0.08 0.08 0.06 0.06 0.10 0.16 0.23 0.38 0.36 0.12 0.32 0.66 0.13 0.00 0.01 0.01 0.06 0.09 0.14 0.43 0.32 0.24 0.15 0.27 0.23 0.15 0.14 0.15 0.16 0.25 0.47 0.46 0.24 0.26 0.10 0.14 0.10 0.14 0.14 0.02 0.00 0.00 0.00

GFSGBSN_prec_precacc24_114.txt.gz
Total_Precipitation_Accumulation
0.01 0.01 0.01 0.01 0.02 0.01 0.01 0.01 0.01 0.01 0.01 0.00 0.00 0.00 0.00 0.00 0.00 0.00 0.00 0.00 0.00 0.00 0.00 0.00 0.00 0.00 0.00 0.00 0.00 0.00 0.00 0.00 0.00 0.00 0.00 0.00 0.00 0.00 0.00 0.00 0.00 0.00 0.00 0.00 0.00 0.00 0.00
0.01 0.01 0.01 0.02 0.02 0.02 0.02 0.01 0.01 0.01 0.01 0.00 0.00 0.00 0.00 0.00 0.00 0.00 0.00 0.00 0.00 0.00 0.00 0.00 0.00 0.01 0.00 0.00 0.00 0.00 0.00 0.00 0.00 0.00 0.00 0.00 0.00 0.00 0.00 0.00 0.00 0.00 0.00 0.00 0.00 0.00 0.00
0.01 0.01 0.02 0.02 0.02 0.02 0.02 0.01 0.01 0.01 0.01 0.01 0.01 0.01 0.01 0.00 0.00 0.00 0.00 0.00 0.00 0.00 0.00 0.00 0.00 0.02 0.00 0.00 0.00 0.00 0.00 0.00 0.00 0.00 0.00 0.00 0.00 0.00 0.00 0.00 0.00 0.00 0.00 0.00 0.00 0.00 0.00
0.01 0.02 0.02 0.02 0.02 0.02 0.01 0.01 0.01 0.01 0.01 0.01 0.01 0.01 0.00 0.00 0.00 0.00 0.00 0.00 0.00 0.00 0.00 0.00 0.00 0.02 0.00 0.00 0.00 0.00 0.00 0.00 0.00 0.00 0.00 0.00 0.00 0.00 0.00 0.00 0.00 0.00 0.00 0.00 0.00 0.00 0.00
0.02 0.02 0.02 0.01 0.02 0.02 0.01 0.01 0.01 0.01 0.01 0.02 0.02 0.01 0.01 0.01 0.01 0.00 0.00 0.00 0.00 0.00 0.00 0.00 0.01 0.01 0.00 0.00 0.00 0.00 0.00 0.00 0.00 0.00 0.00 0.00 0.00 0.00 0.00 0.00 0.00 0.00 0.00 0.00 0.00 0.00 0.00
0.02 0.02 0.01 0.01 0.01 0.01 0.02 0.02 0.01 0.02 0.03 0.03 0.02 0.02 0.02 0.01 0.00 0.00 0.00 0.00 0.00 0.00 0.00 0.00 0.01 0.01 0.00 0.00 0.00 0.00 0.00 0.00 0.00 0.00 0.00 0.00 0.00 0.00 0.00 0.00 0.00 0.00 0.00 0.00 0.00 0.00 0.00
0.03 0.02 0.01 0.01 0.01 0.02 0.03 0.03 0.05 0.05 0.03 0.03 0.02 0.03 0.03 0.01 0.00 0.01 0.01 0.00 0.00 0.01 0.01 0.01 0.01 0.01 0.00 0.00 0.00 0.00 0.00 0.00 0.00 0.00 0.00 0.00 0.00 0.00 0.00 0.00 0.00 0.00 0.00 0.00 0.00 0.00 0.00
0.02 0.02 0.02 0.02 0.03 0.05 0.07 0.07 0.05 0.04 0.04 0.03 0.03 0.04 0.03 0.01 0.01 0.01 0.00 0.00 0.01 0.08 0.11 0.00 0.00 0.00 0.00 0.00 0.00 0.00 0.00 0.01 0.02 0.03 0.01 0.02 0.02 0.00 0.00 0.00 0.00 0.02 0.02 0.00 0.00 0.00 0.00
0.04 0.04 0.05 0.06 0.06 0.04 0.03 0.03 0.04 0.05 0.06 0.05 0.04 0.04 0.04 0.01 0.00 0.00 0.00 0.00 0.00 0.06 0.17 0.01 0.00 0.00 0.00 0.01 0.00 0.00 0.00 0.00 0.05 0.10 0.04 0.05 0.01 0.00 0.00 0.00 0.00 0.00 0.01 0.00 0.00 0.00 0.01
0.05 0.05 0.03 0.03 0.04 0.04 0.03 0.02 0.02 0.03 0.05 0.05 0.06 0.06 0.06 0.05 0.02 0.01 0.01 0.00 0.02 0.20 0.30 0.01 0.02 0.03 0.04 0.07 0.01 0.00 0.00 0.00 0.07 0.09 0.06 0.07 0.01 0.00 0.00 0.00 0.00 0.00 0.00 0.00 0.01 0.04 0.04
0.02 0.02 0.03 0.03 0.03 0.02 0.02 0.02 0.03 0.04 0.05 0.08 0.08 0.05 0.07 0.13 0.13 0.09 0.02 0.00 0.12 0.28 0.14 0.01 0.11 0.05 0.07 0.05 0.01 0.06 0.00 0.00 0.02 0.07 0.14 0.16 0.02 0.00 0.00 0.00 0.00 0.01 0.00 0.00 0.00 0.00 0.00
0.02 0.02 0.01 0.03 0.04 0.04 0.05 0.05 0.06 0.07 0.06 0.07 0.09 0.07 0.07 0.06 0.06 0.02 0.00 0.04 0.13 0.47 0.12 0.03 0.14 0.10 0.14 0.09 0.01 0.02 0.01 0.00 0.00 0.05 0.06 0.04 0.01 0.00 0.00 0.00 0.00 0.00 0.00 0.00 0.00 0.00 0.03
0.02 0.02 0.02 0.02 0.03 0.04 0.04 0.04 0.05 0.05 0.04 0.05 0.08 0.08 0.04 0.01 0.01 0.01 0.03 0.18 0.41 0.23 0.02 0.02 0.08 0.25 0.16 0.20 0.22 0.05 0.02 0.00 0.00 0.03 0.06 0.03 0.03 0.00 0.00 0.00 0.00 0.00 0.00 0.01 0.02 0.01 0.01
0.01 0.02 0.02 0.02 0.03 0.03 0.03 0.02 0.01 0.03 0.03 0.05 0.06 0.02 0.00 0.00 0.01 0.00 0.04 0.39 0.28 0.20 0.01 0.00 0.11 0.23 0.24 0.17 0.24 0.05 0.02 0.00 0.00 0.00 0.03 0.04 0.10 0.03 0.00 0.00 0.00 0.00 0.00 0.01 0.02 0.01 0.02
0.02 0.03 0.04 0.04 0.03 0.03 0.02 0.01 0.01 0.02 0.05 0.05 0.02 0.00 0.00 0.00 0.00 0.00 0.11 0.17 0.16 0.16 0.00 0.00 0.01 0.10 0.11 0.11 0.45 0.53 0.40 0.10 0.09 0.05 0.10 0.04 0.03 0.02 0.00 0.00 0.00 0.00 0.00 0.00 0.00 0.01 0.04
0.03 0.03 0.02 0.02 0.01 0.00 0.00 0.01 0.02 0.03 0.03 0.02 0.01 0.00 0.00 0.00 0.00 0.03 0.16 0.09 0.02 0.02 0.00 0.00 0.00 0.02 0.12 0.08 0.23 0.85 0.40 0.17 0.04 0.02 0.06 0.09 0.08 0.01 0.01 0.00 0.00 0.00 0.00 0.00 0.00 0.01 0.01
0.02 0.01 0.01 0.01 0.02 0.01 0.03 0.04 0.05 0.06 0.07 0.06 0.01 0.00 0.00 0.00 0.03 0.07 0.06 0.02 0.00 0.00 0.00 0.01 0.01 0.04 0.05 0.05 0.12 0.36 0.42 0.35 0.09 0.05 0.05 0.10 0.13 0.04 0.00 0.00 0.00 0.00 0.00 0.00 0.00 0.00 0.00
0.01 0.01 0.02 0.02 0.01 0.02 0.03 0.05 0.07 0.04 0.07 0.02 0.01 0.01 0.00 0.01 0.07 0.05 0.01 0.00 0.00 0.00 0.00 0.03 0.03 0.03 0.15 0.20 0.10 0.09 0.21 0.32 0.23 0.25 0.10 0.08 0.13 0.09 0.01 0.01 0.00 0.00 0.00 0.00 0.00 0.00 0.00
0.03 0.02 0.01 0.01 0.01 0.04 0.07 0.05 0.05 0.06 0.04 0.03 0.03 0.00 0.01 0.13 0.12 0.02 0.00 0.00 0.00 0.00 0.00 0.02 0.07 0.06 0.10 0.14 0.11 0.16 0.14 0.12 0.16 0.19 0.23 0.13 0.24 0.40 0.22 0.13 0.06 0.04 0.00 0.00 0.00 0.00 0.01
0.02 0.03 0.03 0.03 0.03 0.02 0.02 0.06 0.10 0.13 0.07 0.06 0.06 0.02 0.00 0.06 0.22 0.09 0.05 0.06 0.02 0.00 0.00 0.01 0.01 0.02 0.04 0.04 0.04 0.12 0.17 0.15 0.04 0.08 0.12 0.12 0.13 0.26 0.46 0.25 0.07 0.09 0.03 0.00 0.01 0.01 0.00
0.03 0.03 0.03 0.03 0.02 0.02 0.02 0.03 0.09 0.20 0.11 0.10 0.08 0.02 0.01 0.05 0.07 0.05 0.08 0.07 0.05 0.05 0.01 0.02 0.02 0.03 0.03 0.05 0.04 0.04 0.09 0.14 0.11 0.09 0.14 0.15 0.16 0.14 0.11 0.04 0.15 0.09 0.07 0.02 0.02 0.02 0.02
0.03 0.04 0.06 0.06 0.08 0.10 0.10 0.10 0.11 0.19 0.16 0.10 0.02 0.01 0.00 0.00 0.02 0.10 0.06 0.01 0.08 0.04 0.04 0.04 0.06 0.07 0.06 0.06 0.08 0.05 0.05 0.10 0.10 0.08 0.15 0.18 0.16 0.09 0.03 0.01 0.02 0.03 0.02 0.05 0.02 0.01 0.01
0.05 0.06 0.07 0.07 0.09 0.12 0.15 0.18 0.22 0.26 0.23 0.11 0.02 0.00 0.01 0.01 0.00 0.03 0.06 0.04 0.07 0.02 0.01 0.02 0.03 0.05 0.08 0.05 0.05 0.03 0.04 0.03 0.02 0.02 0.04 0.07 0.09 0.05 0.04 0.01 0.00 0.00 0.00 0.00 0.00 0.00 0.01
0.03 0.04 0.04 0.04 0.04 0.04 0.08 0.16 0.25 0.33 0.31 0.06 0.01 0.01 0.04 0.03 0.00 0.00 0.00 0.00 0.00 0.01 0.03 0.01 0.04 0.05 0.02 0.07 0.03 0.01 0.03 0.02 0.00 0.01 0.02 0.05 0.04 0.04 0.04 0.00 0.01 0.07 0.04 0.02 0.02 0.08 0.03
0.03 0.04 0.04 0.03 0.04 0.04 0.05 0.07 0.15 0.29 0.55 0.35 0.07 0.02 0.04 0.04 0.01 0.00 0.01 0.01 0.02 0.01 0.01 0.01 0.03 0.09 0.07 0.13 0.12 0.08 0.13 0.14 0.11 0.03 0.01 0.01 0.05 0.08 0.04 0.03 0.03 0.12 0.13 0.11 0.16 0.18 0.06
0.03 0.04 0.06 0.05 0.05 0.05 0.05 0.05 0.08 0.15 0.42 0.68 0.26 0.06 0.13 0.11 0.03 0.00 0.00 0.00 0.02 0.03 0.02 0.02 0.08 0.07 0.19 0.22 0.24 0.15 0.16 0.16 0.17 0.27 0.07 0.04 0.03 0.06 0.05 0.07 0.10 0.26 0.23 0.03 0.16 0.32 0.14
0.03 0.04 0.06 0.08 0.07 0.06 0.07 0.08 0.08 0.13 0.25 0.48 0.38 0.12 0.47 0.35 0.02 0.00 0.01 0.02 0.02 0.04 0.04 0.06 0.10 0.12 0.16 0.07 0.10 0.14 0.15 0.09 0.15 0.38 0.25 0.12 0.15 0.11 0.08 0.08 0.11 0.04 0.07 0.12 0.35 0.38 0.18
0.04 0.04 0.04 0.05 0.07 0.07 0.08 0.10 0.11 0.12 0.24 0.50 0.38 0.08 0.42 0.32 0.02 0.00 0.00 0.01 0.02 0.06 0.10 0.11 0.12 0.12 0.06 0.06 0.10 0.15 0.17 0.15 0.18 0.31 0.37 0.29 0.23 0.29 0.25 0.21 0.16 0.02 0.03 0.32 0.66 0.23 0.11
0.06 0.04 0.02 0.04 0.07 0.07 0.07 0.06 0.09 0.15 0.21 0.35 0.36 0.10 0.32 0.62 0.12 0.00 0.00 0.01 0.05 0.06 0.07 0.25 0.30 0.23 0.14 0.29 0.25 0.12 0.12 0.16 0.18 0.33 0.54 0.47 0.25 0.26 0.16 0.25 0.09 0.02 0.08 0.02 0.02 0.02 0.01